<?xml version="1.0" encoding="UTF-8" standalone="no" ?>
<gpx xmlns="http://www.topografix.com/GPX/1/1" xmlns:xsi="http://www.w3.org/2001/XMLSchema-instance" xsi:schemaLocation="http://www.topografix.com/GPX/1/1 http://www.topografix.com/GPX/1/1/gpx.xsd" version="1.1" creator="VisuGPX - https://www.visugpx.com">
  <metadata>
    <name>ILE DE RE - VTT - Un aller-retour de Sainte Marie en Ré au phare des baleines.</name>
    <desc><![CDATA[Tranquille beaucoup de vélos]]></desc>
  </metadata>
  <wpt lat="46.17257" lon="-1.35693">
    <ele>2.769531</ele>
    <name><![CDATA[001]]></name>
    <desc><![CDATA[18-AOU-14 10:45:34]]></desc>
    <cmt><![CDATA[18-AOU-14 10:45:34]]></cmt>
  </wpt>
  <wpt lat="46.21604" lon="-1.43872">
    <ele>-22.464966</ele>
    <name><![CDATA[002]]></name>
    <desc><![CDATA[20-AOU-14 17:20:46]]></desc>
    <cmt><![CDATA[20-AOU-14 17:20:46]]></cmt>
  </wpt>
  <trk>
    <name><![CDATA[ACTIVE LOG]]></name>
    <trkseg>
      <trkpt lat="46.17261" lon="-1.35691">
        <ele>2.060059</ele>
        <time>2014-08-18T08:45:47Z</time>
      </trkpt>
      <trkpt lat="46.17261" lon="-1.35691">
        <ele>3.501953</ele>
        <time>2014-08-18T08:45:49Z</time>
      </trkpt>
      <trkpt lat="46.17261" lon="-1.35691">
        <ele>3.02124</ele>
        <time>2014-08-18T08:45:50Z</time>
      </trkpt>
      <trkpt lat="46.17262" lon="-1.35695">
        <ele>2.060059</ele>
        <time>2014-08-18T08:46:11Z</time>
      </trkpt>
      <trkpt lat="46.17263" lon="-1.357">
        <ele>3.501953</ele>
        <time>2014-08-18T08:46:14Z</time>
      </trkpt>
      <trkpt lat="46.17264" lon="-1.35702">
        <ele>3.501953</ele>
        <time>2014-08-18T08:46:15Z</time>
      </trkpt>
      <trkpt lat="46.17266" lon="-1.35712">
        <ele>3.501953</ele>
        <time>2014-08-18T08:46:20Z</time>
      </trkpt>
      <trkpt lat="46.17267" lon="-1.35716">
        <ele>3.982666</ele>
        <time>2014-08-18T08:46:22Z</time>
      </trkpt>
      <trkpt lat="46.17269" lon="-1.35724">
        <ele>3.501953</ele>
        <time>2014-08-18T08:46:28Z</time>
      </trkpt>
      <trkpt lat="46.17268" lon="-1.35733">
        <ele>3.501953</ele>
        <time>2014-08-18T08:46:32Z</time>
      </trkpt>
      <trkpt lat="46.17248" lon="-1.3577">
        <ele>3.982666</ele>
        <time>2014-08-18T08:46:47Z</time>
      </trkpt>
      <trkpt lat="46.1722" lon="-1.3579">
        <ele>3.02124</ele>
        <time>2014-08-18T08:47:02Z</time>
      </trkpt>
      <trkpt lat="46.17206" lon="-1.3582">
        <ele>2.540649</ele>
        <time>2014-08-18T08:47:14Z</time>
      </trkpt>
      <trkpt lat="46.17185" lon="-1.35823">
        <ele>2.540649</ele>
        <time>2014-08-18T08:47:26Z</time>
      </trkpt>
      <trkpt lat="46.17142" lon="-1.35784">
        <ele>3.982666</ele>
        <time>2014-08-18T08:47:44Z</time>
      </trkpt>
      <trkpt lat="46.17099" lon="-1.35738">
        <ele>3.501953</ele>
        <time>2014-08-18T08:48:03Z</time>
      </trkpt>
      <trkpt lat="46.17071" lon="-1.35714">
        <ele>2.540649</ele>
        <time>2014-08-18T08:48:18Z</time>
      </trkpt>
      <trkpt lat="46.17021" lon="-1.35708">
        <ele>3.02124</ele>
        <time>2014-08-18T08:48:34Z</time>
      </trkpt>
      <trkpt lat="46.16996" lon="-1.35739">
        <ele>3.02124</ele>
        <time>2014-08-18T08:48:43Z</time>
      </trkpt>
      <trkpt lat="46.16949" lon="-1.35781">
        <ele>3.501953</ele>
        <time>2014-08-18T08:48:58Z</time>
      </trkpt>
      <trkpt lat="46.16933" lon="-1.35792">
        <ele>2.540649</ele>
        <time>2014-08-18T08:49:03Z</time>
      </trkpt>
      <trkpt lat="46.16904" lon="-1.35819">
        <ele>4.463257</ele>
        <time>2014-08-18T08:49:12Z</time>
      </trkpt>
      <trkpt lat="46.16847" lon="-1.35882">
        <ele>1.579346</ele>
        <time>2014-08-18T08:49:30Z</time>
      </trkpt>
      <trkpt lat="46.16804" lon="-1.35928">
        <ele>2.540649</ele>
        <time>2014-08-18T08:49:45Z</time>
      </trkpt>
      <trkpt lat="46.16772" lon="-1.35963">
        <ele>1.579346</ele>
        <time>2014-08-18T08:49:58Z</time>
      </trkpt>
      <trkpt lat="46.16768" lon="-1.35969">
        <ele>2.060059</ele>
        <time>2014-08-18T08:50:00Z</time>
      </trkpt>
      <trkpt lat="46.16784" lon="-1.36012">
        <ele>2.540649</ele>
        <time>2014-08-18T08:50:11Z</time>
      </trkpt>
      <trkpt lat="46.16806" lon="-1.36067">
        <ele>2.060059</ele>
        <time>2014-08-18T08:50:23Z</time>
      </trkpt>
      <trkpt lat="46.16845" lon="-1.36136">
        <ele>2.060059</ele>
        <time>2014-08-18T08:50:40Z</time>
      </trkpt>
      <trkpt lat="46.16895" lon="-1.36193">
        <ele>2.060059</ele>
        <time>2014-08-18T08:50:57Z</time>
      </trkpt>
      <trkpt lat="46.16956" lon="-1.36231">
        <ele>3.02124</ele>
        <time>2014-08-18T08:51:15Z</time>
      </trkpt>
      <trkpt lat="46.17031" lon="-1.36274">
        <ele>3.02124</ele>
        <time>2014-08-18T08:51:39Z</time>
      </trkpt>
      <trkpt lat="46.17076" lon="-1.36301">
        <ele>3.02124</ele>
        <time>2014-08-18T08:51:54Z</time>
      </trkpt>
      <trkpt lat="46.17112" lon="-1.36332">
        <ele>2.540649</ele>
        <time>2014-08-18T08:52:05Z</time>
      </trkpt>
      <trkpt lat="46.17168" lon="-1.36396">
        <ele>0.618042</ele>
        <time>2014-08-18T08:52:20Z</time>
      </trkpt>
      <trkpt lat="46.17242" lon="-1.36469">
        <ele>0.137451</ele>
        <time>2014-08-18T08:52:39Z</time>
      </trkpt>
      <trkpt lat="46.17282" lon="-1.36514">
        <ele>0.618042</ele>
        <time>2014-08-18T08:52:54Z</time>
      </trkpt>
      <trkpt lat="46.17317" lon="-1.36563">
        <ele>1.579346</ele>
        <time>2014-08-18T08:53:08Z</time>
      </trkpt>
      <trkpt lat="46.17354" lon="-1.36618">
        <ele>3.02124</ele>
        <time>2014-08-18T08:53:25Z</time>
      </trkpt>
      <trkpt lat="46.17379" lon="-1.3666">
        <ele>3.982666</ele>
        <time>2014-08-18T08:53:37Z</time>
      </trkpt>
      <trkpt lat="46.17407" lon="-1.36712">
        <ele>3.501953</ele>
        <time>2014-08-18T08:53:52Z</time>
      </trkpt>
      <trkpt lat="46.17436" lon="-1.36748">
        <ele>3.982666</ele>
        <time>2014-08-18T08:54:03Z</time>
      </trkpt>
      <trkpt lat="46.17479" lon="-1.36779">
        <ele>4.463257</ele>
        <time>2014-08-18T08:54:17Z</time>
      </trkpt>
      <trkpt lat="46.17518" lon="-1.36809">
        <ele>4.943848</ele>
        <time>2014-08-18T08:54:30Z</time>
      </trkpt>
      <trkpt lat="46.17564" lon="-1.36854">
        <ele>4.463257</ele>
        <time>2014-08-18T08:54:45Z</time>
      </trkpt>
      <trkpt lat="46.17607" lon="-1.3691">
        <ele>4.463257</ele>
        <time>2014-08-18T08:55:00Z</time>
      </trkpt>
      <trkpt lat="46.17645" lon="-1.36999">
        <ele>3.02124</ele>
        <time>2014-08-18T08:55:17Z</time>
      </trkpt>
      <trkpt lat="46.17662" lon="-1.37016">
        <ele>2.540649</ele>
        <time>2014-08-18T08:55:22Z</time>
      </trkpt>
      <trkpt lat="46.17668" lon="-1.37019">
        <ele>3.02124</ele>
        <time>2014-08-18T08:55:24Z</time>
      </trkpt>
      <trkpt lat="46.1768" lon="-1.37021">
        <ele>3.02124</ele>
        <time>2014-08-18T08:55:28Z</time>
      </trkpt>
      <trkpt lat="46.17735" lon="-1.37047">
        <ele>2.540649</ele>
        <time>2014-08-18T08:55:43Z</time>
      </trkpt>
      <trkpt lat="46.17775" lon="-1.37077">
        <ele>0.137451</ele>
        <time>2014-08-18T08:55:51Z</time>
      </trkpt>
      <trkpt lat="46.17808" lon="-1.37128">
        <ele>-0.343384</ele>
        <time>2014-08-18T08:56:01Z</time>
      </trkpt>
      <trkpt lat="46.1784" lon="-1.3717">
        <ele>1.579346</ele>
        <time>2014-08-18T08:56:14Z</time>
      </trkpt>
      <trkpt lat="46.17857" lon="-1.37203">
        <ele>3.02124</ele>
        <time>2014-08-18T08:56:25Z</time>
      </trkpt>
      <trkpt lat="46.17856" lon="-1.37264">
        <ele>2.540649</ele>
        <time>2014-08-18T08:56:39Z</time>
      </trkpt>
      <trkpt lat="46.1786" lon="-1.37313">
        <ele>2.540649</ele>
        <time>2014-08-18T08:56:49Z</time>
      </trkpt>
      <trkpt lat="46.17859" lon="-1.37326">
        <ele>2.540649</ele>
        <time>2014-08-18T08:56:52Z</time>
      </trkpt>
      <trkpt lat="46.17871" lon="-1.37358">
        <ele>2.540649</ele>
        <time>2014-08-18T08:57:02Z</time>
      </trkpt>
      <trkpt lat="46.17884" lon="-1.37383">
        <ele>2.540649</ele>
        <time>2014-08-18T08:57:13Z</time>
      </trkpt>
      <trkpt lat="46.17892" lon="-1.37386">
        <ele>1.579346</ele>
        <time>2014-08-18T08:57:17Z</time>
      </trkpt>
      <trkpt lat="46.17922" lon="-1.37385">
        <ele>2.060059</ele>
        <time>2014-08-18T08:57:32Z</time>
      </trkpt>
      <trkpt lat="46.17927" lon="-1.37385">
        <ele>2.060059</ele>
        <time>2014-08-18T08:57:34Z</time>
      </trkpt>
      <trkpt lat="46.17935" lon="-1.37405">
        <ele>2.540649</ele>
        <time>2014-08-18T08:57:46Z</time>
      </trkpt>
      <trkpt lat="46.17945" lon="-1.3744">
        <ele>2.060059</ele>
        <time>2014-08-18T08:58:00Z</time>
      </trkpt>
      <trkpt lat="46.17941" lon="-1.37473">
        <ele>0.618042</ele>
        <time>2014-08-18T08:58:08Z</time>
      </trkpt>
      <trkpt lat="46.17938" lon="-1.37485">
        <ele>1.579346</ele>
        <time>2014-08-18T08:58:10Z</time>
      </trkpt>
      <trkpt lat="46.17925" lon="-1.37512">
        <ele>2.060059</ele>
        <time>2014-08-18T08:58:20Z</time>
      </trkpt>
      <trkpt lat="46.17942" lon="-1.37549">
        <ele>1.579346</ele>
        <time>2014-08-18T08:58:31Z</time>
      </trkpt>
      <trkpt lat="46.17968" lon="-1.37563">
        <ele>3.02124</ele>
        <time>2014-08-18T08:58:42Z</time>
      </trkpt>
      <trkpt lat="46.17996" lon="-1.37586">
        <ele>4.463257</ele>
        <time>2014-08-18T08:58:53Z</time>
      </trkpt>
      <trkpt lat="46.18035" lon="-1.37597">
        <ele>4.463257</ele>
        <time>2014-08-18T08:59:03Z</time>
      </trkpt>
      <trkpt lat="46.18039" lon="-1.37599">
        <ele>4.463257</ele>
        <time>2014-08-18T08:59:04Z</time>
      </trkpt>
      <trkpt lat="46.18077" lon="-1.37617">
        <ele>5.424561</ele>
        <time>2014-08-18T08:59:16Z</time>
      </trkpt>
      <trkpt lat="46.18113" lon="-1.37633">
        <ele>4.463257</ele>
        <time>2014-08-18T08:59:25Z</time>
      </trkpt>
      <trkpt lat="46.18125" lon="-1.37637">
        <ele>3.501953</ele>
        <time>2014-08-18T08:59:28Z</time>
      </trkpt>
      <trkpt lat="46.18132" lon="-1.3766">
        <ele>4.463257</ele>
        <time>2014-08-18T08:59:35Z</time>
      </trkpt>
      <trkpt lat="46.18137" lon="-1.37698">
        <ele>3.982666</ele>
        <time>2014-08-18T08:59:47Z</time>
      </trkpt>
      <trkpt lat="46.18146" lon="-1.37741">
        <ele>3.02124</ele>
        <time>2014-08-18T08:59:59Z</time>
      </trkpt>
      <trkpt lat="46.18156" lon="-1.378">
        <ele>3.501953</ele>
        <time>2014-08-18T09:00:12Z</time>
      </trkpt>
      <trkpt lat="46.18165" lon="-1.37843">
        <ele>3.02124</ele>
        <time>2014-08-18T09:00:23Z</time>
      </trkpt>
      <trkpt lat="46.18186" lon="-1.37934">
        <ele>3.02124</ele>
        <time>2014-08-18T09:00:43Z</time>
      </trkpt>
      <trkpt lat="46.18212" lon="-1.38009">
        <ele>3.501953</ele>
        <time>2014-08-18T09:01:01Z</time>
      </trkpt>
      <trkpt lat="46.18256" lon="-1.38053">
        <ele>3.501953</ele>
        <time>2014-08-18T09:01:20Z</time>
      </trkpt>
      <trkpt lat="46.18281" lon="-1.38063">
        <ele>3.02124</ele>
        <time>2014-08-18T09:01:31Z</time>
      </trkpt>
      <trkpt lat="46.18322" lon="-1.38079">
        <ele>3.02124</ele>
        <time>2014-08-18T09:01:43Z</time>
      </trkpt>
      <trkpt lat="46.18326" lon="-1.38081">
        <ele>2.540649</ele>
        <time>2014-08-18T09:01:44Z</time>
      </trkpt>
      <trkpt lat="46.18342" lon="-1.38082">
        <ele>3.501953</ele>
        <time>2014-08-18T09:01:53Z</time>
      </trkpt>
      <trkpt lat="46.18369" lon="-1.38094">
        <ele>3.02124</ele>
        <time>2014-08-18T09:02:03Z</time>
      </trkpt>
      <trkpt lat="46.18403" lon="-1.38122">
        <ele>3.02124</ele>
        <time>2014-08-18T09:02:13Z</time>
      </trkpt>
      <trkpt lat="46.18418" lon="-1.38137">
        <ele>2.060059</ele>
        <time>2014-08-18T09:02:18Z</time>
      </trkpt>
      <trkpt lat="46.18431" lon="-1.38146">
        <ele>1.098633</ele>
        <time>2014-08-18T09:02:21Z</time>
      </trkpt>
      <trkpt lat="46.18467" lon="-1.3818">
        <ele>0.618042</ele>
        <time>2014-08-18T09:02:33Z</time>
      </trkpt>
      <trkpt lat="46.18474" lon="-1.38182">
        <ele>0.137451</ele>
        <time>2014-08-18T09:02:35Z</time>
      </trkpt>
      <trkpt lat="46.18481" lon="-1.38186">
        <ele>-0.824097</ele>
        <time>2014-08-18T09:02:37Z</time>
      </trkpt>
      <trkpt lat="46.1848" lon="-1.38217">
        <ele>0.618042</ele>
        <time>2014-08-18T09:02:43Z</time>
      </trkpt>
      <trkpt lat="46.18439" lon="-1.38282">
        <ele>-0.343384</ele>
        <time>2014-08-18T09:03:00Z</time>
      </trkpt>
      <trkpt lat="46.18405" lon="-1.38332">
        <ele>0.137451</ele>
        <time>2014-08-18T09:03:14Z</time>
      </trkpt>
      <trkpt lat="46.18418" lon="-1.38367">
        <ele>1.579346</ele>
        <time>2014-08-18T09:03:23Z</time>
      </trkpt>
      <trkpt lat="46.18451" lon="-1.38425">
        <ele>0.618042</ele>
        <time>2014-08-18T09:03:39Z</time>
      </trkpt>
      <trkpt lat="46.1847" lon="-1.38447">
        <ele>1.098633</ele>
        <time>2014-08-18T09:03:50Z</time>
      </trkpt>
      <trkpt lat="46.18474" lon="-1.38454">
        <ele>0.618042</ele>
        <time>2014-08-18T09:03:55Z</time>
      </trkpt>
      <trkpt lat="46.18481" lon="-1.38489">
        <ele>1.579346</ele>
        <time>2014-08-18T09:04:07Z</time>
      </trkpt>
      <trkpt lat="46.18491" lon="-1.38503">
        <ele>1.098633</ele>
        <time>2014-08-18T09:04:12Z</time>
      </trkpt>
      <trkpt lat="46.18498" lon="-1.38542">
        <ele>1.098633</ele>
        <time>2014-08-18T09:04:23Z</time>
      </trkpt>
      <trkpt lat="46.18509" lon="-1.38593">
        <ele>1.098633</ele>
        <time>2014-08-18T09:04:37Z</time>
      </trkpt>
      <trkpt lat="46.18508" lon="-1.38666">
        <ele>1.098633</ele>
        <time>2014-08-18T09:04:55Z</time>
      </trkpt>
      <trkpt lat="46.18515" lon="-1.38702">
        <ele>1.098633</ele>
        <time>2014-08-18T09:05:05Z</time>
      </trkpt>
      <trkpt lat="46.18519" lon="-1.38722">
        <ele>1.098633</ele>
        <time>2014-08-18T09:05:12Z</time>
      </trkpt>
      <trkpt lat="46.18558" lon="-1.3873">
        <ele>1.098633</ele>
        <time>2014-08-18T09:05:27Z</time>
      </trkpt>
      <trkpt lat="46.18569" lon="-1.38787">
        <ele>1.579346</ele>
        <time>2014-08-18T09:05:44Z</time>
      </trkpt>
      <trkpt lat="46.18584" lon="-1.38848">
        <ele>1.579346</ele>
        <time>2014-08-18T09:06:02Z</time>
      </trkpt>
      <trkpt lat="46.18592" lon="-1.38892">
        <ele>2.540649</ele>
        <time>2014-08-18T09:06:18Z</time>
      </trkpt>
      <trkpt lat="46.18602" lon="-1.38929">
        <ele>3.02124</ele>
        <time>2014-08-18T09:06:30Z</time>
      </trkpt>
      <trkpt lat="46.18602" lon="-1.38934">
        <ele>2.060059</ele>
        <time>2014-08-18T09:06:33Z</time>
      </trkpt>
      <trkpt lat="46.18591" lon="-1.38946">
        <ele>2.540649</ele>
        <time>2014-08-18T09:06:42Z</time>
      </trkpt>
      <trkpt lat="46.18564" lon="-1.38969">
        <ele>3.501953</ele>
        <time>2014-08-18T09:06:56Z</time>
      </trkpt>
      <trkpt lat="46.18554" lon="-1.38994">
        <ele>3.501953</ele>
        <time>2014-08-18T09:07:08Z</time>
      </trkpt>
      <trkpt lat="46.18548" lon="-1.39063">
        <ele>3.501953</ele>
        <time>2014-08-18T09:07:26Z</time>
      </trkpt>
      <trkpt lat="46.18541" lon="-1.391">
        <ele>3.02124</ele>
        <time>2014-08-18T09:07:37Z</time>
      </trkpt>
      <trkpt lat="46.18543" lon="-1.39104">
        <ele>3.501953</ele>
        <time>2014-08-18T09:07:41Z</time>
      </trkpt>
      <trkpt lat="46.18558" lon="-1.39106">
        <ele>3.02124</ele>
        <time>2014-08-18T09:07:49Z</time>
      </trkpt>
      <trkpt lat="46.18564" lon="-1.39124">
        <ele>2.540649</ele>
        <time>2014-08-18T09:08:01Z</time>
      </trkpt>
      <trkpt lat="46.18567" lon="-1.39127">
        <ele>3.02124</ele>
        <time>2014-08-18T09:08:15Z</time>
      </trkpt>
      <trkpt lat="46.18567" lon="-1.39133">
        <ele>2.540649</ele>
        <time>2014-08-18T09:08:28Z</time>
      </trkpt>
      <trkpt lat="46.18567" lon="-1.39134">
        <ele>3.501953</ele>
        <time>2014-08-18T09:08:47Z</time>
      </trkpt>
      <trkpt lat="46.18567" lon="-1.39134">
        <ele>3.982666</ele>
        <time>2014-08-18T09:09:03Z</time>
      </trkpt>
      <trkpt lat="46.18567" lon="-1.39135">
        <ele>3.501953</ele>
        <time>2014-08-18T09:09:17Z</time>
      </trkpt>
      <trkpt lat="46.18568" lon="-1.39134">
        <ele>3.501953</ele>
        <time>2014-08-18T09:09:31Z</time>
      </trkpt>
      <trkpt lat="46.18567" lon="-1.39134">
        <ele>3.501953</ele>
        <time>2014-08-18T09:09:49Z</time>
      </trkpt>
      <trkpt lat="46.18566" lon="-1.39134">
        <ele>2.540649</ele>
        <time>2014-08-18T09:10:08Z</time>
      </trkpt>
      <trkpt lat="46.18565" lon="-1.39134">
        <ele>2.540649</ele>
        <time>2014-08-18T09:10:26Z</time>
      </trkpt>
      <trkpt lat="46.18565" lon="-1.39135">
        <ele>3.501953</ele>
        <time>2014-08-18T09:10:50Z</time>
      </trkpt>
      <trkpt lat="46.18563" lon="-1.39133">
        <ele>3.02124</ele>
        <time>2014-08-18T09:11:03Z</time>
      </trkpt>
      <trkpt lat="46.18564" lon="-1.39137">
        <ele>4.463257</ele>
        <time>2014-08-18T09:11:18Z</time>
      </trkpt>
      <trkpt lat="46.18562" lon="-1.39154">
        <ele>3.982666</ele>
        <time>2014-08-18T09:11:33Z</time>
      </trkpt>
      <trkpt lat="46.18564" lon="-1.39178">
        <ele>3.982666</ele>
        <time>2014-08-18T09:11:53Z</time>
      </trkpt>
      <trkpt lat="46.1855" lon="-1.39184">
        <ele>3.501953</ele>
        <time>2014-08-18T09:12:09Z</time>
      </trkpt>
      <trkpt lat="46.18546" lon="-1.39201">
        <ele>3.501953</ele>
        <time>2014-08-18T09:12:26Z</time>
      </trkpt>
      <trkpt lat="46.18548" lon="-1.39221">
        <ele>3.982666</ele>
        <time>2014-08-18T09:12:45Z</time>
      </trkpt>
      <trkpt lat="46.18549" lon="-1.39233">
        <ele>3.02124</ele>
        <time>2014-08-18T09:13:00Z</time>
      </trkpt>
      <trkpt lat="46.1855" lon="-1.39237">
        <ele>3.02124</ele>
        <time>2014-08-18T09:13:14Z</time>
      </trkpt>
      <trkpt lat="46.18551" lon="-1.39236">
        <ele>3.501953</ele>
        <time>2014-08-18T09:13:35Z</time>
      </trkpt>
      <trkpt lat="46.18554" lon="-1.39246">
        <ele>2.540649</ele>
        <time>2014-08-18T09:13:50Z</time>
      </trkpt>
      <trkpt lat="46.18551" lon="-1.39254">
        <ele>3.02124</ele>
        <time>2014-08-18T09:14:18Z</time>
      </trkpt>
      <trkpt lat="46.18553" lon="-1.39249">
        <ele>3.501953</ele>
        <time>2014-08-18T09:14:51Z</time>
      </trkpt>
      <trkpt lat="46.18549" lon="-1.39249">
        <ele>3.982666</ele>
        <time>2014-08-18T09:15:11Z</time>
      </trkpt>
      <trkpt lat="46.18548" lon="-1.39268">
        <ele>3.982666</ele>
        <time>2014-08-18T09:15:53Z</time>
      </trkpt>
      <trkpt lat="46.18549" lon="-1.39264">
        <ele>3.982666</ele>
        <time>2014-08-18T09:16:21Z</time>
      </trkpt>
      <trkpt lat="46.18552" lon="-1.39262">
        <ele>3.982666</ele>
        <time>2014-08-18T09:16:49Z</time>
      </trkpt>
      <trkpt lat="46.18549" lon="-1.39263">
        <ele>3.501953</ele>
        <time>2014-08-18T09:17:10Z</time>
      </trkpt>
      <trkpt lat="46.18551" lon="-1.39262">
        <ele>4.463257</ele>
        <time>2014-08-18T09:17:47Z</time>
      </trkpt>
      <trkpt lat="46.18552" lon="-1.39263">
        <ele>4.943848</ele>
        <time>2014-08-18T09:18:49Z</time>
      </trkpt>
      <trkpt lat="46.18549" lon="-1.39263">
        <ele>4.463257</ele>
        <time>2014-08-18T09:19:20Z</time>
      </trkpt>
      <trkpt lat="46.18551" lon="-1.39263">
        <ele>4.943848</ele>
        <time>2014-08-18T09:19:39Z</time>
      </trkpt>
      <trkpt lat="46.18554" lon="-1.39259">
        <ele>5.905273</ele>
        <time>2014-08-18T09:20:38Z</time>
      </trkpt>
      <trkpt lat="46.18552" lon="-1.39263">
        <ele>5.424561</ele>
        <time>2014-08-18T09:21:04Z</time>
      </trkpt>
    </trkseg>
  </trk>
  <trk>
    <name><![CDATA[ACTIVE LOG 001]]></name>
    <trkseg>
      <trkpt lat="46.18552" lon="-1.39263">
        <ele>3.02124</ele>
        <time>2014-08-18T10:35:37Z</time>
      </trkpt>
      <trkpt lat="46.18552" lon="-1.39263">
        <ele>1.579346</ele>
        <time>2014-08-18T10:35:38Z</time>
      </trkpt>
      <trkpt lat="46.18552" lon="-1.39263">
        <ele>1.579346</ele>
        <time>2014-08-18T10:35:46Z</time>
      </trkpt>
    </trkseg>
  </trk>
  <trk>
    <name><![CDATA[ACTIVE LOG 002]]></name>
    <trkseg>
      <trkpt lat="46.17258" lon="-1.35712">
        <ele>7.347168</ele>
        <time>2014-08-18T13:04:59Z</time>
      </trkpt>
      <trkpt lat="46.17259" lon="-1.35712">
        <ele>7.347168</ele>
        <time>2014-08-18T13:05:00Z</time>
      </trkpt>
      <trkpt lat="46.17258" lon="-1.35704">
        <ele>7.827881</ele>
        <time>2014-08-18T13:06:16Z</time>
      </trkpt>
      <trkpt lat="46.17259" lon="-1.35705">
        <ele>8.789185</ele>
        <time>2014-08-18T13:06:18Z</time>
      </trkpt>
      <trkpt lat="46.17258" lon="-1.3571">
        <ele>9.75061</ele>
        <time>2014-08-18T13:06:36Z</time>
      </trkpt>
      <trkpt lat="46.1726" lon="-1.35721">
        <ele>9.75061</ele>
        <time>2014-08-18T13:06:40Z</time>
      </trkpt>
      <trkpt lat="46.17255" lon="-1.35759">
        <ele>10.231201</ele>
        <time>2014-08-18T13:06:49Z</time>
      </trkpt>
      <trkpt lat="46.17232" lon="-1.35781">
        <ele>9.75061</ele>
        <time>2014-08-18T13:06:56Z</time>
      </trkpt>
      <trkpt lat="46.1721" lon="-1.35809">
        <ele>9.269897</ele>
        <time>2014-08-18T13:07:10Z</time>
      </trkpt>
      <trkpt lat="46.17204" lon="-1.35828">
        <ele>9.75061</ele>
        <time>2014-08-18T13:07:18Z</time>
      </trkpt>
      <trkpt lat="46.17195" lon="-1.35829">
        <ele>9.269897</ele>
        <time>2014-08-18T13:07:23Z</time>
      </trkpt>
      <trkpt lat="46.17158" lon="-1.358">
        <ele>8.789185</ele>
        <time>2014-08-18T13:07:39Z</time>
      </trkpt>
      <trkpt lat="46.1713" lon="-1.35776">
        <ele>9.269897</ele>
        <time>2014-08-18T13:07:55Z</time>
      </trkpt>
      <trkpt lat="46.17115" lon="-1.35755">
        <ele>8.789185</ele>
        <time>2014-08-18T13:08:07Z</time>
      </trkpt>
      <trkpt lat="46.17082" lon="-1.35727">
        <ele>8.789185</ele>
        <time>2014-08-18T13:08:21Z</time>
      </trkpt>
      <trkpt lat="46.17046" lon="-1.35714">
        <ele>8.789185</ele>
        <time>2014-08-18T13:08:34Z</time>
      </trkpt>
      <trkpt lat="46.17006" lon="-1.3572">
        <ele>9.269897</ele>
        <time>2014-08-18T13:08:49Z</time>
      </trkpt>
      <trkpt lat="46.16994" lon="-1.35745">
        <ele>9.75061</ele>
        <time>2014-08-18T13:09:00Z</time>
      </trkpt>
      <trkpt lat="46.1699" lon="-1.35755">
        <ele>9.269897</ele>
        <time>2014-08-18T13:09:04Z</time>
      </trkpt>
      <trkpt lat="46.16942" lon="-1.35792">
        <ele>9.269897</ele>
        <time>2014-08-18T13:09:21Z</time>
      </trkpt>
      <trkpt lat="46.16901" lon="-1.35834">
        <ele>7.347168</ele>
        <time>2014-08-18T13:09:34Z</time>
      </trkpt>
      <trkpt lat="46.16851" lon="-1.35883">
        <ele>7.827881</ele>
        <time>2014-08-18T13:09:48Z</time>
      </trkpt>
      <trkpt lat="46.16782" lon="-1.35951">
        <ele>6.866455</ele>
        <time>2014-08-18T13:10:12Z</time>
      </trkpt>
      <trkpt lat="46.16767" lon="-1.3597">
        <ele>6.385864</ele>
        <time>2014-08-18T13:10:22Z</time>
      </trkpt>
      <trkpt lat="46.1677" lon="-1.35987">
        <ele>7.827881</ele>
        <time>2014-08-18T13:10:28Z</time>
      </trkpt>
      <trkpt lat="46.16796" lon="-1.36049">
        <ele>7.347168</ele>
        <time>2014-08-18T13:10:45Z</time>
      </trkpt>
      <trkpt lat="46.16804" lon="-1.36069">
        <ele>8.789185</ele>
        <time>2014-08-18T13:10:50Z</time>
      </trkpt>
      <trkpt lat="46.16854" lon="-1.36155">
        <ele>7.827881</ele>
        <time>2014-08-18T13:11:13Z</time>
      </trkpt>
      <trkpt lat="46.16902" lon="-1.36201">
        <ele>7.827881</ele>
        <time>2014-08-18T13:11:30Z</time>
      </trkpt>
      <trkpt lat="46.16972" lon="-1.36242">
        <ele>8.308594</ele>
        <time>2014-08-18T13:11:53Z</time>
      </trkpt>
      <trkpt lat="46.1702" lon="-1.36268">
        <ele>9.269897</ele>
        <time>2014-08-18T13:12:09Z</time>
      </trkpt>
      <trkpt lat="46.17058" lon="-1.36293">
        <ele>8.308594</ele>
        <time>2014-08-18T13:12:20Z</time>
      </trkpt>
      <trkpt lat="46.17075" lon="-1.36304">
        <ele>7.827881</ele>
        <time>2014-08-18T13:12:24Z</time>
      </trkpt>
      <trkpt lat="46.17084" lon="-1.36308">
        <ele>7.347168</ele>
        <time>2014-08-18T13:12:26Z</time>
      </trkpt>
      <trkpt lat="46.17098" lon="-1.36319">
        <ele>8.308594</ele>
        <time>2014-08-18T13:12:30Z</time>
      </trkpt>
      <trkpt lat="46.17113" lon="-1.36333">
        <ele>7.347168</ele>
        <time>2014-08-18T13:12:35Z</time>
      </trkpt>
      <trkpt lat="46.17185" lon="-1.36414">
        <ele>6.385864</ele>
        <time>2014-08-18T13:12:55Z</time>
      </trkpt>
      <trkpt lat="46.17256" lon="-1.36487">
        <ele>6.385864</ele>
        <time>2014-08-18T13:13:15Z</time>
      </trkpt>
      <trkpt lat="46.17293" lon="-1.36532">
        <ele>6.866455</ele>
        <time>2014-08-18T13:13:28Z</time>
      </trkpt>
      <trkpt lat="46.17308" lon="-1.36552">
        <ele>6.385864</ele>
        <time>2014-08-18T13:13:33Z</time>
      </trkpt>
      <trkpt lat="46.17345" lon="-1.36609">
        <ele>7.347168</ele>
        <time>2014-08-18T13:13:48Z</time>
      </trkpt>
      <trkpt lat="46.17369" lon="-1.36661">
        <ele>8.308594</ele>
        <time>2014-08-18T13:14:02Z</time>
      </trkpt>
      <trkpt lat="46.17397" lon="-1.36716">
        <ele>8.789185</ele>
        <time>2014-08-18T13:14:17Z</time>
      </trkpt>
      <trkpt lat="46.17429" lon="-1.36747">
        <ele>8.789185</ele>
        <time>2014-08-18T13:14:29Z</time>
      </trkpt>
      <trkpt lat="46.17468" lon="-1.36778">
        <ele>9.269897</ele>
        <time>2014-08-18T13:14:42Z</time>
      </trkpt>
      <trkpt lat="46.17511" lon="-1.36809">
        <ele>9.269897</ele>
        <time>2014-08-18T13:14:54Z</time>
      </trkpt>
      <trkpt lat="46.17558" lon="-1.3685">
        <ele>8.308594</ele>
        <time>2014-08-18T13:15:08Z</time>
      </trkpt>
      <trkpt lat="46.17603" lon="-1.36913">
        <ele>9.269897</ele>
        <time>2014-08-18T13:15:22Z</time>
      </trkpt>
      <trkpt lat="46.17641" lon="-1.36997">
        <ele>8.789185</ele>
        <time>2014-08-18T13:15:36Z</time>
      </trkpt>
      <trkpt lat="46.1766" lon="-1.37017">
        <ele>7.827881</ele>
        <time>2014-08-18T13:15:41Z</time>
      </trkpt>
      <trkpt lat="46.1767" lon="-1.37021">
        <ele>8.308594</ele>
        <time>2014-08-18T13:15:43Z</time>
      </trkpt>
      <trkpt lat="46.17682" lon="-1.37022">
        <ele>8.308594</ele>
        <time>2014-08-18T13:15:46Z</time>
      </trkpt>
      <trkpt lat="46.1772" lon="-1.3704">
        <ele>8.308594</ele>
        <time>2014-08-18T13:15:54Z</time>
      </trkpt>
      <trkpt lat="46.1773" lon="-1.37048">
        <ele>8.308594</ele>
        <time>2014-08-18T13:15:56Z</time>
      </trkpt>
      <trkpt lat="46.17743" lon="-1.37059">
        <ele>7.347168</ele>
        <time>2014-08-18T13:15:59Z</time>
      </trkpt>
      <trkpt lat="46.17753" lon="-1.37065">
        <ele>5.905273</ele>
        <time>2014-08-18T13:16:01Z</time>
      </trkpt>
      <trkpt lat="46.17792" lon="-1.37112">
        <ele>5.905273</ele>
        <time>2014-08-18T13:16:09Z</time>
      </trkpt>
      <trkpt lat="46.17824" lon="-1.37159">
        <ele>6.866455</ele>
        <time>2014-08-18T13:16:17Z</time>
      </trkpt>
      <trkpt lat="46.17833" lon="-1.37168">
        <ele>6.866455</ele>
        <time>2014-08-18T13:16:19Z</time>
      </trkpt>
      <trkpt lat="46.17851" lon="-1.37185">
        <ele>7.347168</ele>
        <time>2014-08-18T13:16:25Z</time>
      </trkpt>
      <trkpt lat="46.17857" lon="-1.37212">
        <ele>7.827881</ele>
        <time>2014-08-18T13:16:30Z</time>
      </trkpt>
      <trkpt lat="46.17856" lon="-1.37266">
        <ele>8.308594</ele>
        <time>2014-08-18T13:16:38Z</time>
      </trkpt>
      <trkpt lat="46.1786" lon="-1.37332">
        <ele>7.827881</ele>
        <time>2014-08-18T13:16:49Z</time>
      </trkpt>
      <trkpt lat="46.17875" lon="-1.37366">
        <ele>7.347168</ele>
        <time>2014-08-18T13:16:58Z</time>
      </trkpt>
      <trkpt lat="46.17892" lon="-1.37386">
        <ele>6.866455</ele>
        <time>2014-08-18T13:17:09Z</time>
      </trkpt>
      <trkpt lat="46.17923" lon="-1.37387">
        <ele>6.866455</ele>
        <time>2014-08-18T13:17:23Z</time>
      </trkpt>
      <trkpt lat="46.17926" lon="-1.37386">
        <ele>6.866455</ele>
        <time>2014-08-18T13:17:25Z</time>
      </trkpt>
      <trkpt lat="46.17931" lon="-1.37398">
        <ele>6.385864</ele>
        <time>2014-08-18T13:17:31Z</time>
      </trkpt>
      <trkpt lat="46.17938" lon="-1.37413">
        <ele>6.866455</ele>
        <time>2014-08-18T13:17:43Z</time>
      </trkpt>
      <trkpt lat="46.17942" lon="-1.37455">
        <ele>6.385864</ele>
        <time>2014-08-18T13:17:55Z</time>
      </trkpt>
      <trkpt lat="46.17942" lon="-1.37466">
        <ele>5.905273</ele>
        <time>2014-08-18T13:17:57Z</time>
      </trkpt>
      <trkpt lat="46.17927" lon="-1.37502">
        <ele>6.866455</ele>
        <time>2014-08-18T13:18:05Z</time>
      </trkpt>
      <trkpt lat="46.17935" lon="-1.37543">
        <ele>5.905273</ele>
        <time>2014-08-18T13:18:17Z</time>
      </trkpt>
      <trkpt lat="46.17964" lon="-1.37558">
        <ele>6.385864</ele>
        <time>2014-08-18T13:18:28Z</time>
      </trkpt>
      <trkpt lat="46.17991" lon="-1.3758">
        <ele>7.347168</ele>
        <time>2014-08-18T13:18:41Z</time>
      </trkpt>
      <trkpt lat="46.18024" lon="-1.37593">
        <ele>7.347168</ele>
        <time>2014-08-18T13:18:51Z</time>
      </trkpt>
      <trkpt lat="46.18061" lon="-1.3761">
        <ele>9.75061</ele>
        <time>2014-08-18T13:19:03Z</time>
      </trkpt>
      <trkpt lat="46.18083" lon="-1.37623">
        <ele>8.308594</ele>
        <time>2014-08-18T13:19:10Z</time>
      </trkpt>
      <trkpt lat="46.18104" lon="-1.37631">
        <ele>7.347168</ele>
        <time>2014-08-18T13:19:15Z</time>
      </trkpt>
      <trkpt lat="46.18134" lon="-1.37641">
        <ele>7.827881</ele>
        <time>2014-08-18T13:19:24Z</time>
      </trkpt>
      <trkpt lat="46.18193" lon="-1.37654">
        <ele>7.347168</ele>
        <time>2014-08-18T13:19:40Z</time>
      </trkpt>
      <trkpt lat="46.18241" lon="-1.37665">
        <ele>6.866455</ele>
        <time>2014-08-18T13:19:53Z</time>
      </trkpt>
      <trkpt lat="46.18328" lon="-1.37684">
        <ele>7.347168</ele>
        <time>2014-08-18T13:20:17Z</time>
      </trkpt>
      <trkpt lat="46.18356" lon="-1.37691">
        <ele>8.308594</ele>
        <time>2014-08-18T13:20:24Z</time>
      </trkpt>
      <trkpt lat="46.18435" lon="-1.37717">
        <ele>9.269897</ele>
        <time>2014-08-18T13:20:43Z</time>
      </trkpt>
      <trkpt lat="46.18487" lon="-1.37744">
        <ele>8.308594</ele>
        <time>2014-08-18T13:20:56Z</time>
      </trkpt>
      <trkpt lat="46.18491" lon="-1.37747">
        <ele>8.789185</ele>
        <time>2014-08-18T13:20:57Z</time>
      </trkpt>
      <trkpt lat="46.18512" lon="-1.3776">
        <ele>7.827881</ele>
        <time>2014-08-18T13:21:02Z</time>
      </trkpt>
      <trkpt lat="46.18519" lon="-1.37766">
        <ele>8.308594</ele>
        <time>2014-08-18T13:21:04Z</time>
      </trkpt>
      <trkpt lat="46.18568" lon="-1.3781">
        <ele>7.827881</ele>
        <time>2014-08-18T13:21:18Z</time>
      </trkpt>
      <trkpt lat="46.18589" lon="-1.37829">
        <ele>6.385864</ele>
        <time>2014-08-18T13:21:23Z</time>
      </trkpt>
      <trkpt lat="46.1861" lon="-1.37856">
        <ele>5.424561</ele>
        <time>2014-08-18T13:21:28Z</time>
      </trkpt>
      <trkpt lat="46.18622" lon="-1.37871">
        <ele>5.424561</ele>
        <time>2014-08-18T13:21:31Z</time>
      </trkpt>
      <trkpt lat="46.18638" lon="-1.37898">
        <ele>5.424561</ele>
        <time>2014-08-18T13:21:36Z</time>
      </trkpt>
      <trkpt lat="46.1869" lon="-1.37988">
        <ele>6.866455</ele>
        <time>2014-08-18T13:21:55Z</time>
      </trkpt>
      <trkpt lat="46.18722" lon="-1.38054">
        <ele>7.827881</ele>
        <time>2014-08-18T13:22:08Z</time>
      </trkpt>
      <trkpt lat="46.18755" lon="-1.38117">
        <ele>8.789185</ele>
        <time>2014-08-18T13:22:23Z</time>
      </trkpt>
      <trkpt lat="46.18768" lon="-1.38121">
        <ele>7.827881</ele>
        <time>2014-08-18T13:22:29Z</time>
      </trkpt>
      <trkpt lat="46.18778" lon="-1.38166">
        <ele>8.308594</ele>
        <time>2014-08-18T13:22:41Z</time>
      </trkpt>
      <trkpt lat="46.18781" lon="-1.38189">
        <ele>7.827881</ele>
        <time>2014-08-18T13:22:54Z</time>
      </trkpt>
      <trkpt lat="46.18781" lon="-1.3819">
        <ele>6.866455</ele>
        <time>2014-08-18T13:23:19Z</time>
      </trkpt>
      <trkpt lat="46.18784" lon="-1.38205">
        <ele>6.866455</ele>
        <time>2014-08-18T13:23:24Z</time>
      </trkpt>
      <trkpt lat="46.18793" lon="-1.38249">
        <ele>7.347168</ele>
        <time>2014-08-18T13:23:36Z</time>
      </trkpt>
      <trkpt lat="46.18795" lon="-1.38252">
        <ele>6.866455</ele>
        <time>2014-08-18T13:23:50Z</time>
      </trkpt>
      <trkpt lat="46.18794" lon="-1.38252">
        <ele>7.347168</ele>
        <time>2014-08-18T13:24:13Z</time>
      </trkpt>
      <trkpt lat="46.18794" lon="-1.38251">
        <ele>6.866455</ele>
        <time>2014-08-18T13:24:15Z</time>
      </trkpt>
      <trkpt lat="46.1882" lon="-1.38245">
        <ele>8.308594</ele>
        <time>2014-08-18T13:24:30Z</time>
      </trkpt>
      <trkpt lat="46.18827" lon="-1.38245">
        <ele>7.347168</ele>
        <time>2014-08-18T13:24:42Z</time>
      </trkpt>
      <trkpt lat="46.18809" lon="-1.3825">
        <ele>7.827881</ele>
        <time>2014-08-18T13:24:54Z</time>
      </trkpt>
      <trkpt lat="46.18797" lon="-1.38251">
        <ele>7.827881</ele>
        <time>2014-08-18T13:25:01Z</time>
      </trkpt>
      <trkpt lat="46.18797" lon="-1.38247">
        <ele>7.827881</ele>
        <time>2014-08-18T13:25:05Z</time>
      </trkpt>
      <trkpt lat="46.1884" lon="-1.38248">
        <ele>7.827881</ele>
        <time>2014-08-18T13:25:21Z</time>
      </trkpt>
      <trkpt lat="46.18864" lon="-1.38257">
        <ele>8.308594</ele>
        <time>2014-08-18T13:25:31Z</time>
      </trkpt>
      <trkpt lat="46.18862" lon="-1.38273">
        <ele>9.269897</ele>
        <time>2014-08-18T13:25:38Z</time>
      </trkpt>
      <trkpt lat="46.1885" lon="-1.38324">
        <ele>9.269897</ele>
        <time>2014-08-18T13:25:50Z</time>
      </trkpt>
      <trkpt lat="46.18844" lon="-1.38341">
        <ele>7.347168</ele>
        <time>2014-08-18T13:25:55Z</time>
      </trkpt>
      <trkpt lat="46.18863" lon="-1.38389">
        <ele>8.308594</ele>
        <time>2014-08-18T13:26:09Z</time>
      </trkpt>
      <trkpt lat="46.18916" lon="-1.38508">
        <ele>8.308594</ele>
        <time>2014-08-18T13:26:35Z</time>
      </trkpt>
      <trkpt lat="46.18938" lon="-1.38562">
        <ele>9.75061</ele>
        <time>2014-08-18T13:26:46Z</time>
      </trkpt>
      <trkpt lat="46.18962" lon="-1.38623">
        <ele>9.75061</ele>
        <time>2014-08-18T13:26:59Z</time>
      </trkpt>
      <trkpt lat="46.18987" lon="-1.38726">
        <ele>7.827881</ele>
        <time>2014-08-18T13:27:18Z</time>
      </trkpt>
      <trkpt lat="46.19" lon="-1.38817">
        <ele>7.827881</ele>
        <time>2014-08-18T13:27:36Z</time>
      </trkpt>
      <trkpt lat="46.19015" lon="-1.38886">
        <ele>7.827881</ele>
        <time>2014-08-18T13:27:52Z</time>
      </trkpt>
      <trkpt lat="46.1901" lon="-1.38962">
        <ele>8.789185</ele>
        <time>2014-08-18T13:28:09Z</time>
      </trkpt>
      <trkpt lat="46.19001" lon="-1.39006">
        <ele>7.347168</ele>
        <time>2014-08-18T13:28:18Z</time>
      </trkpt>
      <trkpt lat="46.1899" lon="-1.39085">
        <ele>8.789185</ele>
        <time>2014-08-18T13:28:32Z</time>
      </trkpt>
      <trkpt lat="46.18976" lon="-1.39165">
        <ele>7.827881</ele>
        <time>2014-08-18T13:28:47Z</time>
      </trkpt>
      <trkpt lat="46.18966" lon="-1.39245">
        <ele>6.866455</ele>
        <time>2014-08-18T13:29:03Z</time>
      </trkpt>
      <trkpt lat="46.18965" lon="-1.3926">
        <ele>4.943848</ele>
        <time>2014-08-18T13:29:06Z</time>
      </trkpt>
      <trkpt lat="46.18963" lon="-1.39287">
        <ele>6.385864</ele>
        <time>2014-08-18T13:29:12Z</time>
      </trkpt>
      <trkpt lat="46.18967" lon="-1.39365">
        <ele>7.347168</ele>
        <time>2014-08-18T13:29:24Z</time>
      </trkpt>
      <trkpt lat="46.18967" lon="-1.3939">
        <ele>6.866455</ele>
        <time>2014-08-18T13:29:28Z</time>
      </trkpt>
      <trkpt lat="46.18979" lon="-1.39492">
        <ele>6.866455</ele>
        <time>2014-08-18T13:29:46Z</time>
      </trkpt>
      <trkpt lat="46.1901" lon="-1.39568">
        <ele>6.385864</ele>
        <time>2014-08-18T13:29:59Z</time>
      </trkpt>
      <trkpt lat="46.19018" lon="-1.39589">
        <ele>5.424561</ele>
        <time>2014-08-18T13:30:03Z</time>
      </trkpt>
      <trkpt lat="46.19032" lon="-1.39628">
        <ele>4.943848</ele>
        <time>2014-08-18T13:30:15Z</time>
      </trkpt>
      <trkpt lat="46.19038" lon="-1.39649">
        <ele>6.385864</ele>
        <time>2014-08-18T13:30:20Z</time>
      </trkpt>
      <trkpt lat="46.19054" lon="-1.397">
        <ele>4.943848</ele>
        <time>2014-08-18T13:30:29Z</time>
      </trkpt>
      <trkpt lat="46.19092" lon="-1.39803">
        <ele>3.982666</ele>
        <time>2014-08-18T13:30:49Z</time>
      </trkpt>
      <trkpt lat="46.19107" lon="-1.39852">
        <ele>4.463257</ele>
        <time>2014-08-18T13:31:01Z</time>
      </trkpt>
      <trkpt lat="46.19138" lon="-1.39941">
        <ele>4.463257</ele>
        <time>2014-08-18T13:31:18Z</time>
      </trkpt>
      <trkpt lat="46.19166" lon="-1.40037">
        <ele>3.982666</ele>
        <time>2014-08-18T13:31:35Z</time>
      </trkpt>
      <trkpt lat="46.19198" lon="-1.40161">
        <ele>4.463257</ele>
        <time>2014-08-18T13:31:56Z</time>
      </trkpt>
      <trkpt lat="46.1923" lon="-1.40281">
        <ele>3.982666</ele>
        <time>2014-08-18T13:32:14Z</time>
      </trkpt>
      <trkpt lat="46.19261" lon="-1.40403">
        <ele>3.02124</ele>
        <time>2014-08-18T13:32:34Z</time>
      </trkpt>
      <trkpt lat="46.19272" lon="-1.40446">
        <ele>3.02124</ele>
        <time>2014-08-18T13:32:46Z</time>
      </trkpt>
      <trkpt lat="46.1928" lon="-1.40475">
        <ele>3.501953</ele>
        <time>2014-08-18T13:32:57Z</time>
      </trkpt>
      <trkpt lat="46.19302" lon="-1.40559">
        <ele>3.02124</ele>
        <time>2014-08-18T13:33:14Z</time>
      </trkpt>
      <trkpt lat="46.19317" lon="-1.4062">
        <ele>3.02124</ele>
        <time>2014-08-18T13:33:28Z</time>
      </trkpt>
      <trkpt lat="46.19338" lon="-1.40716">
        <ele>2.540649</ele>
        <time>2014-08-18T13:33:46Z</time>
      </trkpt>
      <trkpt lat="46.19367" lon="-1.40831">
        <ele>2.060059</ele>
        <time>2014-08-18T13:34:04Z</time>
      </trkpt>
      <trkpt lat="46.19396" lon="-1.40954">
        <ele>1.579346</ele>
        <time>2014-08-18T13:34:23Z</time>
      </trkpt>
      <trkpt lat="46.19419" lon="-1.4105">
        <ele>1.579346</ele>
        <time>2014-08-18T13:34:40Z</time>
      </trkpt>
      <trkpt lat="46.19419" lon="-1.41065">
        <ele>2.540649</ele>
        <time>2014-08-18T13:34:43Z</time>
      </trkpt>
      <trkpt lat="46.19397" lon="-1.41145">
        <ele>2.060059</ele>
        <time>2014-08-18T13:34:57Z</time>
      </trkpt>
      <trkpt lat="46.19381" lon="-1.41255">
        <ele>2.060059</ele>
        <time>2014-08-18T13:35:16Z</time>
      </trkpt>
      <trkpt lat="46.19375" lon="-1.41286">
        <ele>2.060059</ele>
        <time>2014-08-18T13:35:21Z</time>
      </trkpt>
      <trkpt lat="46.19348" lon="-1.41342">
        <ele>2.060059</ele>
        <time>2014-08-18T13:35:31Z</time>
      </trkpt>
      <trkpt lat="46.19342" lon="-1.41382">
        <ele>2.540649</ele>
        <time>2014-08-18T13:35:37Z</time>
      </trkpt>
      <trkpt lat="46.19359" lon="-1.41482">
        <ele>2.540649</ele>
        <time>2014-08-18T13:35:53Z</time>
      </trkpt>
      <trkpt lat="46.19373" lon="-1.41593">
        <ele>2.540649</ele>
        <time>2014-08-18T13:36:11Z</time>
      </trkpt>
      <trkpt lat="46.19392" lon="-1.41678">
        <ele>2.060059</ele>
        <time>2014-08-18T13:36:26Z</time>
      </trkpt>
      <trkpt lat="46.19411" lon="-1.41723">
        <ele>2.060059</ele>
        <time>2014-08-18T13:36:35Z</time>
      </trkpt>
      <trkpt lat="46.19421" lon="-1.41785">
        <ele>1.098633</ele>
        <time>2014-08-18T13:36:45Z</time>
      </trkpt>
      <trkpt lat="46.19422" lon="-1.4182">
        <ele>1.579346</ele>
        <time>2014-08-18T13:36:51Z</time>
      </trkpt>
      <trkpt lat="46.19421" lon="-1.41832">
        <ele>2.060059</ele>
        <time>2014-08-18T13:36:53Z</time>
      </trkpt>
      <trkpt lat="46.19402" lon="-1.41887">
        <ele>1.579346</ele>
        <time>2014-08-18T13:37:05Z</time>
      </trkpt>
      <trkpt lat="46.19418" lon="-1.41913">
        <ele>2.540649</ele>
        <time>2014-08-18T13:37:14Z</time>
      </trkpt>
      <trkpt lat="46.19458" lon="-1.41922">
        <ele>3.02124</ele>
        <time>2014-08-18T13:37:24Z</time>
      </trkpt>
      <trkpt lat="46.19511" lon="-1.41927">
        <ele>3.02124</ele>
        <time>2014-08-18T13:37:38Z</time>
      </trkpt>
      <trkpt lat="46.1953" lon="-1.4193">
        <ele>1.579346</ele>
        <time>2014-08-18T13:37:43Z</time>
      </trkpt>
      <trkpt lat="46.19535" lon="-1.41952">
        <ele>2.540649</ele>
        <time>2014-08-18T13:37:48Z</time>
      </trkpt>
      <trkpt lat="46.19542" lon="-1.42044">
        <ele>3.02124</ele>
        <time>2014-08-18T13:38:06Z</time>
      </trkpt>
      <trkpt lat="46.19546" lon="-1.42049">
        <ele>2.060059</ele>
        <time>2014-08-18T13:38:17Z</time>
      </trkpt>
      <trkpt lat="46.19546" lon="-1.4205">
        <ele>2.060059</ele>
        <time>2014-08-18T13:38:33Z</time>
      </trkpt>
      <trkpt lat="46.19547" lon="-1.42065">
        <ele>3.501953</ele>
        <time>2014-08-18T13:38:38Z</time>
      </trkpt>
      <trkpt lat="46.19543" lon="-1.42075">
        <ele>3.982666</ele>
        <time>2014-08-18T13:38:40Z</time>
      </trkpt>
      <trkpt lat="46.19537" lon="-1.42086">
        <ele>4.943848</ele>
        <time>2014-08-18T13:38:42Z</time>
      </trkpt>
      <trkpt lat="46.19522" lon="-1.42126">
        <ele>5.424561</ele>
        <time>2014-08-18T13:38:48Z</time>
      </trkpt>
      <trkpt lat="46.19505" lon="-1.42165">
        <ele>2.540649</ele>
        <time>2014-08-18T13:38:59Z</time>
      </trkpt>
      <trkpt lat="46.19505" lon="-1.42167">
        <ele>2.540649</ele>
        <time>2014-08-18T13:39:00Z</time>
      </trkpt>
      <trkpt lat="46.19509" lon="-1.42172">
        <ele>2.060059</ele>
        <time>2014-08-18T13:39:08Z</time>
      </trkpt>
      <trkpt lat="46.1951" lon="-1.4217">
        <ele>2.540649</ele>
        <time>2014-08-18T13:39:28Z</time>
      </trkpt>
      <trkpt lat="46.1951" lon="-1.42169">
        <ele>3.02124</ele>
        <time>2014-08-18T13:39:40Z</time>
      </trkpt>
      <trkpt lat="46.19531" lon="-1.422">
        <ele>3.982666</ele>
        <time>2014-08-18T13:39:56Z</time>
      </trkpt>
      <trkpt lat="46.19563" lon="-1.42247">
        <ele>3.501953</ele>
        <time>2014-08-18T13:40:09Z</time>
      </trkpt>
      <trkpt lat="46.19601" lon="-1.42305">
        <ele>3.982666</ele>
        <time>2014-08-18T13:40:27Z</time>
      </trkpt>
      <trkpt lat="46.1964" lon="-1.42362">
        <ele>3.02124</ele>
        <time>2014-08-18T13:40:44Z</time>
      </trkpt>
      <trkpt lat="46.19697" lon="-1.42431">
        <ele>3.02124</ele>
        <time>2014-08-18T13:41:03Z</time>
      </trkpt>
      <trkpt lat="46.19741" lon="-1.42482">
        <ele>3.501953</ele>
        <time>2014-08-18T13:41:19Z</time>
      </trkpt>
      <trkpt lat="46.19776" lon="-1.42528">
        <ele>3.501953</ele>
        <time>2014-08-18T13:41:34Z</time>
      </trkpt>
      <trkpt lat="46.19825" lon="-1.42586">
        <ele>2.540649</ele>
        <time>2014-08-18T13:41:53Z</time>
      </trkpt>
      <trkpt lat="46.19835" lon="-1.42602">
        <ele>2.540649</ele>
        <time>2014-08-18T13:42:03Z</time>
      </trkpt>
      <trkpt lat="46.19835" lon="-1.42609">
        <ele>2.540649</ele>
        <time>2014-08-18T13:42:07Z</time>
      </trkpt>
      <trkpt lat="46.19833" lon="-1.42614">
        <ele>1.098633</ele>
        <time>2014-08-18T13:42:14Z</time>
      </trkpt>
      <trkpt lat="46.19832" lon="-1.42618">
        <ele>2.540649</ele>
        <time>2014-08-18T13:42:22Z</time>
      </trkpt>
      <trkpt lat="46.19843" lon="-1.42617">
        <ele>3.02124</ele>
        <time>2014-08-18T13:42:33Z</time>
      </trkpt>
      <trkpt lat="46.19849" lon="-1.42621">
        <ele>3.02124</ele>
        <time>2014-08-18T13:42:36Z</time>
      </trkpt>
      <trkpt lat="46.19857" lon="-1.42629">
        <ele>3.982666</ele>
        <time>2014-08-18T13:42:40Z</time>
      </trkpt>
      <trkpt lat="46.19873" lon="-1.4268">
        <ele>3.501953</ele>
        <time>2014-08-18T13:42:53Z</time>
      </trkpt>
      <trkpt lat="46.19876" lon="-1.42701">
        <ele>3.501953</ele>
        <time>2014-08-18T13:42:57Z</time>
      </trkpt>
      <trkpt lat="46.19882" lon="-1.42717">
        <ele>3.02124</ele>
        <time>2014-08-18T13:43:00Z</time>
      </trkpt>
      <trkpt lat="46.19898" lon="-1.42739">
        <ele>3.501953</ele>
        <time>2014-08-18T13:43:05Z</time>
      </trkpt>
      <trkpt lat="46.19938" lon="-1.42742">
        <ele>3.501953</ele>
        <time>2014-08-18T13:43:16Z</time>
      </trkpt>
      <trkpt lat="46.1999" lon="-1.42742">
        <ele>3.501953</ele>
        <time>2014-08-18T13:43:32Z</time>
      </trkpt>
      <trkpt lat="46.20045" lon="-1.42757">
        <ele>3.501953</ele>
        <time>2014-08-18T13:43:47Z</time>
      </trkpt>
      <trkpt lat="46.20113" lon="-1.42764">
        <ele>3.501953</ele>
        <time>2014-08-18T13:44:05Z</time>
      </trkpt>
      <trkpt lat="46.20127" lon="-1.42762">
        <ele>2.540649</ele>
        <time>2014-08-18T13:44:10Z</time>
      </trkpt>
      <trkpt lat="46.20133" lon="-1.42749">
        <ele>3.02124</ele>
        <time>2014-08-18T13:44:14Z</time>
      </trkpt>
      <trkpt lat="46.2017" lon="-1.427">
        <ele>3.501953</ele>
        <time>2014-08-18T13:44:29Z</time>
      </trkpt>
      <trkpt lat="46.20216" lon="-1.42699">
        <ele>3.501953</ele>
        <time>2014-08-18T13:44:43Z</time>
      </trkpt>
      <trkpt lat="46.20263" lon="-1.42705">
        <ele>3.02124</ele>
        <time>2014-08-18T13:44:56Z</time>
      </trkpt>
      <trkpt lat="46.20336" lon="-1.42679">
        <ele>3.02124</ele>
        <time>2014-08-18T13:45:14Z</time>
      </trkpt>
      <trkpt lat="46.20369" lon="-1.42668">
        <ele>3.02124</ele>
        <time>2014-08-18T13:45:27Z</time>
      </trkpt>
      <trkpt lat="46.20369" lon="-1.4267">
        <ele>3.982666</ele>
        <time>2014-08-18T13:45:36Z</time>
      </trkpt>
      <trkpt lat="46.20365" lon="-1.42676">
        <ele>3.02124</ele>
        <time>2014-08-18T13:45:40Z</time>
      </trkpt>
      <trkpt lat="46.20364" lon="-1.42687">
        <ele>3.501953</ele>
        <time>2014-08-18T13:45:47Z</time>
      </trkpt>
      <trkpt lat="46.20366" lon="-1.42702">
        <ele>3.02124</ele>
        <time>2014-08-18T13:45:56Z</time>
      </trkpt>
      <trkpt lat="46.20363" lon="-1.4272">
        <ele>3.501953</ele>
        <time>2014-08-18T13:46:09Z</time>
      </trkpt>
      <trkpt lat="46.20364" lon="-1.42744">
        <ele>3.02124</ele>
        <time>2014-08-18T13:46:27Z</time>
      </trkpt>
      <trkpt lat="46.20363" lon="-1.42754">
        <ele>3.02124</ele>
        <time>2014-08-18T13:46:35Z</time>
      </trkpt>
      <trkpt lat="46.20365" lon="-1.4278">
        <ele>3.501953</ele>
        <time>2014-08-18T13:46:50Z</time>
      </trkpt>
      <trkpt lat="46.20366" lon="-1.42782">
        <ele>3.501953</ele>
        <time>2014-08-18T13:46:51Z</time>
      </trkpt>
      <trkpt lat="46.20367" lon="-1.42784">
        <ele>3.501953</ele>
        <time>2014-08-18T13:46:53Z</time>
      </trkpt>
      <trkpt lat="46.20367" lon="-1.4279">
        <ele>3.501953</ele>
        <time>2014-08-18T13:47:05Z</time>
      </trkpt>
      <trkpt lat="46.20367" lon="-1.42786">
        <ele>3.982666</ele>
        <time>2014-08-18T13:47:58Z</time>
      </trkpt>
      <trkpt lat="46.20368" lon="-1.42787">
        <ele>3.02124</ele>
        <time>2014-08-18T13:48:24Z</time>
      </trkpt>
      <trkpt lat="46.20368" lon="-1.42788">
        <ele>3.501953</ele>
        <time>2014-08-18T13:48:59Z</time>
      </trkpt>
      <trkpt lat="46.20368" lon="-1.42787">
        <ele>3.982666</ele>
        <time>2014-08-18T13:49:51Z</time>
      </trkpt>
      <trkpt lat="46.20367" lon="-1.4279">
        <ele>3.982666</ele>
        <time>2014-08-18T13:49:59Z</time>
      </trkpt>
      <trkpt lat="46.20367" lon="-1.42799">
        <ele>3.982666</ele>
        <time>2014-08-18T13:50:09Z</time>
      </trkpt>
      <trkpt lat="46.20363" lon="-1.42819">
        <ele>3.982666</ele>
        <time>2014-08-18T13:50:17Z</time>
      </trkpt>
      <trkpt lat="46.20359" lon="-1.4283">
        <ele>3.501953</ele>
        <time>2014-08-18T13:50:21Z</time>
      </trkpt>
      <trkpt lat="46.20363" lon="-1.42847">
        <ele>3.982666</ele>
        <time>2014-08-18T13:50:26Z</time>
      </trkpt>
      <trkpt lat="46.20398" lon="-1.42894">
        <ele>3.982666</ele>
        <time>2014-08-18T13:50:41Z</time>
      </trkpt>
      <trkpt lat="46.2047" lon="-1.42971">
        <ele>5.424561</ele>
        <time>2014-08-18T13:51:06Z</time>
      </trkpt>
      <trkpt lat="46.20505" lon="-1.43044">
        <ele>4.943848</ele>
        <time>2014-08-18T13:51:23Z</time>
      </trkpt>
      <trkpt lat="46.20513" lon="-1.4312">
        <ele>4.943848</ele>
        <time>2014-08-18T13:51:37Z</time>
      </trkpt>
      <trkpt lat="46.20493" lon="-1.43185">
        <ele>5.424561</ele>
        <time>2014-08-18T13:51:50Z</time>
      </trkpt>
      <trkpt lat="46.20499" lon="-1.43213">
        <ele>4.463257</ele>
        <time>2014-08-18T13:51:55Z</time>
      </trkpt>
      <trkpt lat="46.20531" lon="-1.43283">
        <ele>4.463257</ele>
        <time>2014-08-18T13:52:09Z</time>
      </trkpt>
      <trkpt lat="46.20536" lon="-1.43292">
        <ele>3.982666</ele>
        <time>2014-08-18T13:52:11Z</time>
      </trkpt>
      <trkpt lat="46.20578" lon="-1.43403">
        <ele>4.943848</ele>
        <time>2014-08-18T13:52:32Z</time>
      </trkpt>
      <trkpt lat="46.20622" lon="-1.43529">
        <ele>4.463257</ele>
        <time>2014-08-18T13:52:54Z</time>
      </trkpt>
      <trkpt lat="46.20633" lon="-1.43556">
        <ele>3.501953</ele>
        <time>2014-08-18T13:53:00Z</time>
      </trkpt>
      <trkpt lat="46.20658" lon="-1.43608">
        <ele>5.424561</ele>
        <time>2014-08-18T13:53:14Z</time>
      </trkpt>
      <trkpt lat="46.20695" lon="-1.43704">
        <ele>4.943848</ele>
        <time>2014-08-18T13:53:32Z</time>
      </trkpt>
      <trkpt lat="46.2074" lon="-1.43806">
        <ele>5.424561</ele>
        <time>2014-08-18T13:53:52Z</time>
      </trkpt>
      <trkpt lat="46.20781" lon="-1.43897">
        <ele>4.463257</ele>
        <time>2014-08-18T13:54:11Z</time>
      </trkpt>
      <trkpt lat="46.20821" lon="-1.43992">
        <ele>4.463257</ele>
        <time>2014-08-18T13:54:30Z</time>
      </trkpt>
      <trkpt lat="46.20847" lon="-1.44065">
        <ele>4.463257</ele>
        <time>2014-08-18T13:54:45Z</time>
      </trkpt>
      <trkpt lat="46.20848" lon="-1.4407">
        <ele>3.982666</ele>
        <time>2014-08-18T13:54:46Z</time>
      </trkpt>
      <trkpt lat="46.20837" lon="-1.44116">
        <ele>3.982666</ele>
        <time>2014-08-18T13:54:57Z</time>
      </trkpt>
      <trkpt lat="46.20788" lon="-1.44184">
        <ele>4.943848</ele>
        <time>2014-08-18T13:55:14Z</time>
      </trkpt>
      <trkpt lat="46.20742" lon="-1.44259">
        <ele>4.463257</ele>
        <time>2014-08-18T13:55:30Z</time>
      </trkpt>
      <trkpt lat="46.20678" lon="-1.44343">
        <ele>4.943848</ele>
        <time>2014-08-18T13:55:50Z</time>
      </trkpt>
      <trkpt lat="46.20637" lon="-1.44402">
        <ele>4.463257</ele>
        <time>2014-08-18T13:56:06Z</time>
      </trkpt>
      <trkpt lat="46.20655" lon="-1.44459">
        <ele>4.463257</ele>
        <time>2014-08-18T13:56:17Z</time>
      </trkpt>
      <trkpt lat="46.20669" lon="-1.445">
        <ele>3.982666</ele>
        <time>2014-08-18T13:56:24Z</time>
      </trkpt>
      <trkpt lat="46.20705" lon="-1.44608">
        <ele>3.982666</ele>
        <time>2014-08-18T13:56:41Z</time>
      </trkpt>
      <trkpt lat="46.20745" lon="-1.44726">
        <ele>4.463257</ele>
        <time>2014-08-18T13:57:00Z</time>
      </trkpt>
      <trkpt lat="46.20782" lon="-1.44837">
        <ele>3.501953</ele>
        <time>2014-08-18T13:57:20Z</time>
      </trkpt>
      <trkpt lat="46.20816" lon="-1.44938">
        <ele>4.943848</ele>
        <time>2014-08-18T13:57:38Z</time>
      </trkpt>
      <trkpt lat="46.20852" lon="-1.45045">
        <ele>4.463257</ele>
        <time>2014-08-18T13:57:57Z</time>
      </trkpt>
      <trkpt lat="46.209" lon="-1.4519">
        <ele>4.943848</ele>
        <time>2014-08-18T13:58:22Z</time>
      </trkpt>
      <trkpt lat="46.20934" lon="-1.45292">
        <ele>4.943848</ele>
        <time>2014-08-18T13:58:39Z</time>
      </trkpt>
      <trkpt lat="46.20955" lon="-1.45377">
        <ele>3.982666</ele>
        <time>2014-08-18T13:58:55Z</time>
      </trkpt>
      <trkpt lat="46.20971" lon="-1.45419">
        <ele>3.982666</ele>
        <time>2014-08-18T13:59:05Z</time>
      </trkpt>
      <trkpt lat="46.21016" lon="-1.45557">
        <ele>3.982666</ele>
        <time>2014-08-18T13:59:28Z</time>
      </trkpt>
      <trkpt lat="46.21041" lon="-1.45654">
        <ele>4.943848</ele>
        <time>2014-08-18T13:59:45Z</time>
      </trkpt>
      <trkpt lat="46.2106" lon="-1.45747">
        <ele>4.943848</ele>
        <time>2014-08-18T14:00:02Z</time>
      </trkpt>
      <trkpt lat="46.21081" lon="-1.45853">
        <ele>5.905273</ele>
        <time>2014-08-18T14:00:19Z</time>
      </trkpt>
      <trkpt lat="46.21091" lon="-1.45944">
        <ele>3.982666</ele>
        <time>2014-08-18T14:00:34Z</time>
      </trkpt>
      <trkpt lat="46.21106" lon="-1.46007">
        <ele>4.463257</ele>
        <time>2014-08-18T14:00:50Z</time>
      </trkpt>
      <trkpt lat="46.21106" lon="-1.4601">
        <ele>4.463257</ele>
        <time>2014-08-18T14:00:51Z</time>
      </trkpt>
      <trkpt lat="46.21123" lon="-1.46031">
        <ele>4.463257</ele>
        <time>2014-08-18T14:01:00Z</time>
      </trkpt>
      <trkpt lat="46.21125" lon="-1.46108">
        <ele>4.463257</ele>
        <time>2014-08-18T14:01:15Z</time>
      </trkpt>
      <trkpt lat="46.21126" lon="-1.46139">
        <ele>4.463257</ele>
        <time>2014-08-18T14:01:21Z</time>
      </trkpt>
      <trkpt lat="46.2111" lon="-1.46221">
        <ele>4.943848</ele>
        <time>2014-08-18T14:01:37Z</time>
      </trkpt>
      <trkpt lat="46.2109" lon="-1.46318">
        <ele>5.424561</ele>
        <time>2014-08-18T14:01:54Z</time>
      </trkpt>
      <trkpt lat="46.21077" lon="-1.46409">
        <ele>5.424561</ele>
        <time>2014-08-18T14:02:09Z</time>
      </trkpt>
      <trkpt lat="46.21069" lon="-1.46491">
        <ele>4.943848</ele>
        <time>2014-08-18T14:02:24Z</time>
      </trkpt>
      <trkpt lat="46.21063" lon="-1.46594">
        <ele>4.943848</ele>
        <time>2014-08-18T14:02:40Z</time>
      </trkpt>
      <trkpt lat="46.21047" lon="-1.46712">
        <ele>5.424561</ele>
        <time>2014-08-18T14:02:59Z</time>
      </trkpt>
      <trkpt lat="46.21011" lon="-1.46791">
        <ele>4.943848</ele>
        <time>2014-08-18T14:03:15Z</time>
      </trkpt>
      <trkpt lat="46.21006" lon="-1.46812">
        <ele>3.982666</ele>
        <time>2014-08-18T14:03:19Z</time>
      </trkpt>
      <trkpt lat="46.20995" lon="-1.46839">
        <ele>4.463257</ele>
        <time>2014-08-18T14:03:24Z</time>
      </trkpt>
      <trkpt lat="46.2093" lon="-1.46894">
        <ele>4.943848</ele>
        <time>2014-08-18T14:03:42Z</time>
      </trkpt>
      <trkpt lat="46.20865" lon="-1.46944">
        <ele>4.943848</ele>
        <time>2014-08-18T14:03:58Z</time>
      </trkpt>
      <trkpt lat="46.20861" lon="-1.46947">
        <ele>4.943848</ele>
        <time>2014-08-18T14:03:59Z</time>
      </trkpt>
      <trkpt lat="46.20841" lon="-1.46963">
        <ele>3.982666</ele>
        <time>2014-08-18T14:04:04Z</time>
      </trkpt>
      <trkpt lat="46.20767" lon="-1.47024">
        <ele>4.943848</ele>
        <time>2014-08-18T14:04:23Z</time>
      </trkpt>
      <trkpt lat="46.20701" lon="-1.47055">
        <ele>5.424561</ele>
        <time>2014-08-18T14:04:38Z</time>
      </trkpt>
      <trkpt lat="46.20651" lon="-1.47071">
        <ele>4.943848</ele>
        <time>2014-08-18T14:04:50Z</time>
      </trkpt>
      <trkpt lat="46.20639" lon="-1.47078">
        <ele>5.905273</ele>
        <time>2014-08-18T14:04:53Z</time>
      </trkpt>
      <trkpt lat="46.20583" lon="-1.4712">
        <ele>4.943848</ele>
        <time>2014-08-18T14:05:07Z</time>
      </trkpt>
      <trkpt lat="46.20572" lon="-1.47127">
        <ele>4.943848</ele>
        <time>2014-08-18T14:05:11Z</time>
      </trkpt>
      <trkpt lat="46.20572" lon="-1.47141">
        <ele>5.424561</ele>
        <time>2014-08-18T14:05:15Z</time>
      </trkpt>
      <trkpt lat="46.20582" lon="-1.47203">
        <ele>5.424561</ele>
        <time>2014-08-18T14:05:27Z</time>
      </trkpt>
      <trkpt lat="46.20598" lon="-1.47248">
        <ele>5.424561</ele>
        <time>2014-08-18T14:05:38Z</time>
      </trkpt>
      <trkpt lat="46.20616" lon="-1.47252">
        <ele>5.424561</ele>
        <time>2014-08-18T14:05:43Z</time>
      </trkpt>
      <trkpt lat="46.20628" lon="-1.47262">
        <ele>5.905273</ele>
        <time>2014-08-18T14:05:46Z</time>
      </trkpt>
      <trkpt lat="46.20655" lon="-1.47297">
        <ele>5.905273</ele>
        <time>2014-08-18T14:05:54Z</time>
      </trkpt>
      <trkpt lat="46.20672" lon="-1.47319">
        <ele>5.424561</ele>
        <time>2014-08-18T14:05:59Z</time>
      </trkpt>
      <trkpt lat="46.20696" lon="-1.4734">
        <ele>6.385864</ele>
        <time>2014-08-18T14:06:05Z</time>
      </trkpt>
      <trkpt lat="46.20727" lon="-1.47382">
        <ele>5.905273</ele>
        <time>2014-08-18T14:06:16Z</time>
      </trkpt>
      <trkpt lat="46.20713" lon="-1.474">
        <ele>4.463257</ele>
        <time>2014-08-18T14:06:22Z</time>
      </trkpt>
      <trkpt lat="46.20637" lon="-1.47412">
        <ele>4.943848</ele>
        <time>2014-08-18T14:06:40Z</time>
      </trkpt>
      <trkpt lat="46.20608" lon="-1.47424">
        <ele>4.463257</ele>
        <time>2014-08-18T14:06:47Z</time>
      </trkpt>
      <trkpt lat="46.20596" lon="-1.47434">
        <ele>3.982666</ele>
        <time>2014-08-18T14:06:50Z</time>
      </trkpt>
      <trkpt lat="46.2055" lon="-1.47464">
        <ele>4.463257</ele>
        <time>2014-08-18T14:07:01Z</time>
      </trkpt>
      <trkpt lat="46.20518" lon="-1.47526">
        <ele>4.463257</ele>
        <time>2014-08-18T14:07:13Z</time>
      </trkpt>
      <trkpt lat="46.20479" lon="-1.47601">
        <ele>4.463257</ele>
        <time>2014-08-18T14:07:29Z</time>
      </trkpt>
      <trkpt lat="46.20451" lon="-1.47635">
        <ele>5.424561</ele>
        <time>2014-08-18T14:07:38Z</time>
      </trkpt>
      <trkpt lat="46.2042" lon="-1.47757">
        <ele>5.424561</ele>
        <time>2014-08-18T14:07:59Z</time>
      </trkpt>
      <trkpt lat="46.20388" lon="-1.47864">
        <ele>4.943848</ele>
        <time>2014-08-18T14:08:17Z</time>
      </trkpt>
      <trkpt lat="46.20345" lon="-1.4796">
        <ele>4.943848</ele>
        <time>2014-08-18T14:08:35Z</time>
      </trkpt>
      <trkpt lat="46.20303" lon="-1.48054">
        <ele>5.424561</ele>
        <time>2014-08-18T14:08:53Z</time>
      </trkpt>
      <trkpt lat="46.20285" lon="-1.48095">
        <ele>5.905273</ele>
        <time>2014-08-18T14:09:01Z</time>
      </trkpt>
      <trkpt lat="46.2025" lon="-1.48201">
        <ele>5.424561</ele>
        <time>2014-08-18T14:09:19Z</time>
      </trkpt>
      <trkpt lat="46.20231" lon="-1.48304">
        <ele>5.424561</ele>
        <time>2014-08-18T14:09:38Z</time>
      </trkpt>
      <trkpt lat="46.20223" lon="-1.48369">
        <ele>5.424561</ele>
        <time>2014-08-18T14:09:52Z</time>
      </trkpt>
      <trkpt lat="46.20211" lon="-1.48443">
        <ele>5.424561</ele>
        <time>2014-08-18T14:10:06Z</time>
      </trkpt>
      <trkpt lat="46.20185" lon="-1.48556">
        <ele>4.943848</ele>
        <time>2014-08-18T14:10:27Z</time>
      </trkpt>
      <trkpt lat="46.20153" lon="-1.48634">
        <ele>5.424561</ele>
        <time>2014-08-18T14:10:44Z</time>
      </trkpt>
      <trkpt lat="46.20116" lon="-1.48692">
        <ele>4.943848</ele>
        <time>2014-08-18T14:10:58Z</time>
      </trkpt>
      <trkpt lat="46.20102" lon="-1.48766">
        <ele>4.943848</ele>
        <time>2014-08-18T14:11:14Z</time>
      </trkpt>
      <trkpt lat="46.20117" lon="-1.48845">
        <ele>4.463257</ele>
        <time>2014-08-18T14:11:29Z</time>
      </trkpt>
      <trkpt lat="46.2012" lon="-1.48856">
        <ele>4.943848</ele>
        <time>2014-08-18T14:11:31Z</time>
      </trkpt>
      <trkpt lat="46.20124" lon="-1.48867">
        <ele>3.501953</ele>
        <time>2014-08-18T14:11:33Z</time>
      </trkpt>
      <trkpt lat="46.20156" lon="-1.48973">
        <ele>3.501953</ele>
        <time>2014-08-18T14:11:52Z</time>
      </trkpt>
      <trkpt lat="46.20196" lon="-1.49113">
        <ele>3.501953</ele>
        <time>2014-08-18T14:12:16Z</time>
      </trkpt>
      <trkpt lat="46.20227" lon="-1.4923">
        <ele>3.982666</ele>
        <time>2014-08-18T14:12:37Z</time>
      </trkpt>
      <trkpt lat="46.20216" lon="-1.49333">
        <ele>3.02124</ele>
        <time>2014-08-18T14:12:54Z</time>
      </trkpt>
      <trkpt lat="46.2022" lon="-1.49418">
        <ele>3.501953</ele>
        <time>2014-08-18T14:13:09Z</time>
      </trkpt>
      <trkpt lat="46.20252" lon="-1.49507">
        <ele>4.463257</ele>
        <time>2014-08-18T14:13:27Z</time>
      </trkpt>
      <trkpt lat="46.20277" lon="-1.4957">
        <ele>3.501953</ele>
        <time>2014-08-18T14:13:41Z</time>
      </trkpt>
      <trkpt lat="46.20306" lon="-1.49642">
        <ele>4.943848</ele>
        <time>2014-08-18T14:13:57Z</time>
      </trkpt>
      <trkpt lat="46.20348" lon="-1.49726">
        <ele>3.982666</ele>
        <time>2014-08-18T14:14:15Z</time>
      </trkpt>
      <trkpt lat="46.20394" lon="-1.4979">
        <ele>3.982666</ele>
        <time>2014-08-18T14:14:28Z</time>
      </trkpt>
      <trkpt lat="46.20409" lon="-1.49857">
        <ele>3.982666</ele>
        <time>2014-08-18T14:14:38Z</time>
      </trkpt>
      <trkpt lat="46.20413" lon="-1.49902">
        <ele>3.501953</ele>
        <time>2014-08-18T14:14:45Z</time>
      </trkpt>
      <trkpt lat="46.20414" lon="-1.49946">
        <ele>3.02124</ele>
        <time>2014-08-18T14:14:52Z</time>
      </trkpt>
      <trkpt lat="46.20402" lon="-1.50042">
        <ele>3.501953</ele>
        <time>2014-08-18T14:15:09Z</time>
      </trkpt>
      <trkpt lat="46.20403" lon="-1.50148">
        <ele>3.02124</ele>
        <time>2014-08-18T14:15:26Z</time>
      </trkpt>
      <trkpt lat="46.20413" lon="-1.50249">
        <ele>3.982666</ele>
        <time>2014-08-18T14:15:44Z</time>
      </trkpt>
      <trkpt lat="46.20451" lon="-1.50348">
        <ele>4.463257</ele>
        <time>2014-08-18T14:16:03Z</time>
      </trkpt>
      <trkpt lat="46.20498" lon="-1.50409">
        <ele>3.982666</ele>
        <time>2014-08-18T14:16:21Z</time>
      </trkpt>
      <trkpt lat="46.20532" lon="-1.50468">
        <ele>4.463257</ele>
        <time>2014-08-18T14:16:36Z</time>
      </trkpt>
      <trkpt lat="46.20535" lon="-1.50472">
        <ele>4.463257</ele>
        <time>2014-08-18T14:16:37Z</time>
      </trkpt>
      <trkpt lat="46.20599" lon="-1.50514">
        <ele>3.501953</ele>
        <time>2014-08-18T14:16:54Z</time>
      </trkpt>
      <trkpt lat="46.20606" lon="-1.50518">
        <ele>4.463257</ele>
        <time>2014-08-18T14:16:56Z</time>
      </trkpt>
      <trkpt lat="46.20656" lon="-1.50549">
        <ele>4.463257</ele>
        <time>2014-08-18T14:17:11Z</time>
      </trkpt>
      <trkpt lat="46.20695" lon="-1.50608">
        <ele>3.501953</ele>
        <time>2014-08-18T14:17:26Z</time>
      </trkpt>
      <trkpt lat="46.20707" lon="-1.50665">
        <ele>3.501953</ele>
        <time>2014-08-18T14:17:40Z</time>
      </trkpt>
      <trkpt lat="46.20712" lon="-1.50678">
        <ele>3.02124</ele>
        <time>2014-08-18T14:17:52Z</time>
      </trkpt>
      <trkpt lat="46.20712" lon="-1.50677">
        <ele>2.540649</ele>
        <time>2014-08-18T14:18:20Z</time>
      </trkpt>
      <trkpt lat="46.20714" lon="-1.50677">
        <ele>3.02124</ele>
        <time>2014-08-18T14:19:22Z</time>
      </trkpt>
      <trkpt lat="46.20713" lon="-1.50678">
        <ele>2.540649</ele>
        <time>2014-08-18T14:19:56Z</time>
      </trkpt>
      <trkpt lat="46.20713" lon="-1.50678">
        <ele>3.02124</ele>
        <time>2014-08-18T14:20:00Z</time>
      </trkpt>
      <trkpt lat="46.20711" lon="-1.50686">
        <ele>4.463257</ele>
        <time>2014-08-18T14:20:04Z</time>
      </trkpt>
      <trkpt lat="46.20717" lon="-1.50751">
        <ele>3.02124</ele>
        <time>2014-08-18T14:20:19Z</time>
      </trkpt>
      <trkpt lat="46.20727" lon="-1.508">
        <ele>3.982666</ele>
        <time>2014-08-18T14:20:31Z</time>
      </trkpt>
      <trkpt lat="46.20767" lon="-1.50863">
        <ele>3.501953</ele>
        <time>2014-08-18T14:20:50Z</time>
      </trkpt>
      <trkpt lat="46.20821" lon="-1.50928">
        <ele>3.982666</ele>
        <time>2014-08-18T14:21:09Z</time>
      </trkpt>
      <trkpt lat="46.20842" lon="-1.50953">
        <ele>3.982666</ele>
        <time>2014-08-18T14:21:21Z</time>
      </trkpt>
      <trkpt lat="46.20864" lon="-1.50988">
        <ele>3.501953</ele>
        <time>2014-08-18T14:21:39Z</time>
      </trkpt>
      <trkpt lat="46.20886" lon="-1.51036">
        <ele>3.982666</ele>
        <time>2014-08-18T14:21:54Z</time>
      </trkpt>
      <trkpt lat="46.20899" lon="-1.51087">
        <ele>3.501953</ele>
        <time>2014-08-18T14:22:08Z</time>
      </trkpt>
      <trkpt lat="46.20921" lon="-1.51118">
        <ele>4.463257</ele>
        <time>2014-08-18T14:22:25Z</time>
      </trkpt>
      <trkpt lat="46.20947" lon="-1.5116">
        <ele>4.943848</ele>
        <time>2014-08-18T14:22:41Z</time>
      </trkpt>
      <trkpt lat="46.20985" lon="-1.51212">
        <ele>4.943848</ele>
        <time>2014-08-18T14:22:56Z</time>
      </trkpt>
      <trkpt lat="46.21025" lon="-1.51228">
        <ele>3.982666</ele>
        <time>2014-08-18T14:23:12Z</time>
      </trkpt>
      <trkpt lat="46.21053" lon="-1.51212">
        <ele>4.463257</ele>
        <time>2014-08-18T14:23:25Z</time>
      </trkpt>
      <trkpt lat="46.21078" lon="-1.51225">
        <ele>4.463257</ele>
        <time>2014-08-18T14:23:37Z</time>
      </trkpt>
      <trkpt lat="46.21083" lon="-1.51264">
        <ele>4.463257</ele>
        <time>2014-08-18T14:23:45Z</time>
      </trkpt>
      <trkpt lat="46.21086" lon="-1.51283">
        <ele>4.463257</ele>
        <time>2014-08-18T14:23:48Z</time>
      </trkpt>
      <trkpt lat="46.21111" lon="-1.51346">
        <ele>3.982666</ele>
        <time>2014-08-18T14:24:02Z</time>
      </trkpt>
      <trkpt lat="46.21143" lon="-1.51403">
        <ele>3.982666</ele>
        <time>2014-08-18T14:24:15Z</time>
      </trkpt>
      <trkpt lat="46.21184" lon="-1.5144">
        <ele>3.982666</ele>
        <time>2014-08-18T14:24:26Z</time>
      </trkpt>
      <trkpt lat="46.21216" lon="-1.51466">
        <ele>3.982666</ele>
        <time>2014-08-18T14:24:32Z</time>
      </trkpt>
      <trkpt lat="46.21248" lon="-1.51518">
        <ele>3.982666</ele>
        <time>2014-08-18T14:24:43Z</time>
      </trkpt>
      <trkpt lat="46.21311" lon="-1.51578">
        <ele>3.501953</ele>
        <time>2014-08-18T14:24:59Z</time>
      </trkpt>
      <trkpt lat="46.21372" lon="-1.51616">
        <ele>3.501953</ele>
        <time>2014-08-18T14:25:15Z</time>
      </trkpt>
      <trkpt lat="46.21457" lon="-1.51645">
        <ele>3.501953</ele>
        <time>2014-08-18T14:25:34Z</time>
      </trkpt>
      <trkpt lat="46.21503" lon="-1.51686">
        <ele>3.982666</ele>
        <time>2014-08-18T14:25:46Z</time>
      </trkpt>
      <trkpt lat="46.21525" lon="-1.51719">
        <ele>4.463257</ele>
        <time>2014-08-18T14:25:53Z</time>
      </trkpt>
      <trkpt lat="46.21532" lon="-1.51736">
        <ele>4.463257</ele>
        <time>2014-08-18T14:25:56Z</time>
      </trkpt>
      <trkpt lat="46.2154" lon="-1.5175">
        <ele>3.501953</ele>
        <time>2014-08-18T14:26:00Z</time>
      </trkpt>
      <trkpt lat="46.21573" lon="-1.5179">
        <ele>3.501953</ele>
        <time>2014-08-18T14:26:13Z</time>
      </trkpt>
      <trkpt lat="46.21622" lon="-1.51831">
        <ele>3.02124</ele>
        <time>2014-08-18T14:26:28Z</time>
      </trkpt>
      <trkpt lat="46.21687" lon="-1.51852">
        <ele>3.02124</ele>
        <time>2014-08-18T14:26:46Z</time>
      </trkpt>
      <trkpt lat="46.21714" lon="-1.51854">
        <ele>2.540649</ele>
        <time>2014-08-18T14:26:56Z</time>
      </trkpt>
      <trkpt lat="46.21722" lon="-1.51856">
        <ele>3.02124</ele>
        <time>2014-08-18T14:26:58Z</time>
      </trkpt>
      <trkpt lat="46.21774" lon="-1.51895">
        <ele>3.02124</ele>
        <time>2014-08-18T14:27:14Z</time>
      </trkpt>
      <trkpt lat="46.21791" lon="-1.51918">
        <ele>3.02124</ele>
        <time>2014-08-18T14:27:24Z</time>
      </trkpt>
      <trkpt lat="46.21811" lon="-1.51946">
        <ele>3.02124</ele>
        <time>2014-08-18T14:27:33Z</time>
      </trkpt>
      <trkpt lat="46.21878" lon="-1.52002">
        <ele>2.540649</ele>
        <time>2014-08-18T14:27:51Z</time>
      </trkpt>
      <trkpt lat="46.21924" lon="-1.52042">
        <ele>3.02124</ele>
        <time>2014-08-18T14:28:05Z</time>
      </trkpt>
      <trkpt lat="46.21932" lon="-1.52069">
        <ele>3.02124</ele>
        <time>2014-08-18T14:28:10Z</time>
      </trkpt>
      <trkpt lat="46.21933" lon="-1.52144">
        <ele>3.982666</ele>
        <time>2014-08-18T14:28:24Z</time>
      </trkpt>
      <trkpt lat="46.2198" lon="-1.52233">
        <ele>3.982666</ele>
        <time>2014-08-18T14:28:40Z</time>
      </trkpt>
      <trkpt lat="46.22002" lon="-1.52272">
        <ele>4.463257</ele>
        <time>2014-08-18T14:28:47Z</time>
      </trkpt>
      <trkpt lat="46.22062" lon="-1.52353">
        <ele>3.982666</ele>
        <time>2014-08-18T14:29:03Z</time>
      </trkpt>
      <trkpt lat="46.2207" lon="-1.5236">
        <ele>3.982666</ele>
        <time>2014-08-18T14:29:05Z</time>
      </trkpt>
      <trkpt lat="46.22129" lon="-1.52412">
        <ele>4.463257</ele>
        <time>2014-08-18T14:29:16Z</time>
      </trkpt>
      <trkpt lat="46.22177" lon="-1.52423">
        <ele>3.501953</ele>
        <time>2014-08-18T14:29:25Z</time>
      </trkpt>
      <trkpt lat="46.22185" lon="-1.52424">
        <ele>3.501953</ele>
        <time>2014-08-18T14:29:27Z</time>
      </trkpt>
      <trkpt lat="46.22243" lon="-1.52431">
        <ele>3.501953</ele>
        <time>2014-08-18T14:29:41Z</time>
      </trkpt>
      <trkpt lat="46.22277" lon="-1.52462">
        <ele>3.501953</ele>
        <time>2014-08-18T14:29:50Z</time>
      </trkpt>
      <trkpt lat="46.22293" lon="-1.52485">
        <ele>3.02124</ele>
        <time>2014-08-18T14:29:55Z</time>
      </trkpt>
      <trkpt lat="46.22374" lon="-1.52539">
        <ele>4.463257</ele>
        <time>2014-08-18T14:30:14Z</time>
      </trkpt>
      <trkpt lat="46.2242" lon="-1.52605">
        <ele>4.463257</ele>
        <time>2014-08-18T14:30:29Z</time>
      </trkpt>
      <trkpt lat="46.22467" lon="-1.52708">
        <ele>4.463257</ele>
        <time>2014-08-18T14:30:48Z</time>
      </trkpt>
      <trkpt lat="46.22503" lon="-1.52816">
        <ele>3.501953</ele>
        <time>2014-08-18T14:31:06Z</time>
      </trkpt>
      <trkpt lat="46.22539" lon="-1.52888">
        <ele>3.02124</ele>
        <time>2014-08-18T14:31:20Z</time>
      </trkpt>
      <trkpt lat="46.22566" lon="-1.52968">
        <ele>3.02124</ele>
        <time>2014-08-18T14:31:36Z</time>
      </trkpt>
      <trkpt lat="46.22602" lon="-1.53086">
        <ele>3.02124</ele>
        <time>2014-08-18T14:32:00Z</time>
      </trkpt>
      <trkpt lat="46.22646" lon="-1.53159">
        <ele>3.501953</ele>
        <time>2014-08-18T14:32:17Z</time>
      </trkpt>
      <trkpt lat="46.22648" lon="-1.53163">
        <ele>3.982666</ele>
        <time>2014-08-18T14:32:18Z</time>
      </trkpt>
      <trkpt lat="46.22665" lon="-1.53238">
        <ele>3.501953</ele>
        <time>2014-08-18T14:32:32Z</time>
      </trkpt>
      <trkpt lat="46.22684" lon="-1.53305">
        <ele>3.02124</ele>
        <time>2014-08-18T14:32:44Z</time>
      </trkpt>
      <trkpt lat="46.22701" lon="-1.53382">
        <ele>2.060059</ele>
        <time>2014-08-18T14:32:56Z</time>
      </trkpt>
      <trkpt lat="46.22698" lon="-1.53408">
        <ele>2.060059</ele>
        <time>2014-08-18T14:33:00Z</time>
      </trkpt>
      <trkpt lat="46.22699" lon="-1.53431">
        <ele>2.060059</ele>
        <time>2014-08-18T14:33:04Z</time>
      </trkpt>
      <trkpt lat="46.22708" lon="-1.53459">
        <ele>2.060059</ele>
        <time>2014-08-18T14:33:13Z</time>
      </trkpt>
      <trkpt lat="46.22724" lon="-1.53441">
        <ele>1.579346</ele>
        <time>2014-08-18T14:33:22Z</time>
      </trkpt>
      <trkpt lat="46.22776" lon="-1.53395">
        <ele>2.540649</ele>
        <time>2014-08-18T14:33:40Z</time>
      </trkpt>
      <trkpt lat="46.22832" lon="-1.53333">
        <ele>3.501953</ele>
        <time>2014-08-18T14:33:59Z</time>
      </trkpt>
      <trkpt lat="46.22858" lon="-1.53303">
        <ele>2.060059</ele>
        <time>2014-08-18T14:34:11Z</time>
      </trkpt>
      <trkpt lat="46.22857" lon="-1.53304">
        <ele>2.060059</ele>
        <time>2014-08-18T14:34:32Z</time>
      </trkpt>
      <trkpt lat="46.22856" lon="-1.53304">
        <ele>2.060059</ele>
        <time>2014-08-18T14:34:53Z</time>
      </trkpt>
      <trkpt lat="46.22856" lon="-1.53303">
        <ele>3.501953</ele>
        <time>2014-08-18T14:35:17Z</time>
      </trkpt>
      <trkpt lat="46.22862" lon="-1.53297">
        <ele>3.501953</ele>
        <time>2014-08-18T14:35:22Z</time>
      </trkpt>
      <trkpt lat="46.22914" lon="-1.5324">
        <ele>3.02124</ele>
        <time>2014-08-18T14:35:37Z</time>
      </trkpt>
      <trkpt lat="46.22989" lon="-1.53161">
        <ele>3.982666</ele>
        <time>2014-08-18T14:35:57Z</time>
      </trkpt>
      <trkpt lat="46.22992" lon="-1.53157">
        <ele>3.501953</ele>
        <time>2014-08-18T14:35:58Z</time>
      </trkpt>
      <trkpt lat="46.23012" lon="-1.53171">
        <ele>4.463257</ele>
        <time>2014-08-18T14:36:04Z</time>
      </trkpt>
      <trkpt lat="46.23057" lon="-1.53291">
        <ele>3.02124</ele>
        <time>2014-08-18T14:36:24Z</time>
      </trkpt>
      <trkpt lat="46.23084" lon="-1.53386">
        <ele>3.501953</ele>
        <time>2014-08-18T14:36:40Z</time>
      </trkpt>
      <trkpt lat="46.23102" lon="-1.53476">
        <ele>3.982666</ele>
        <time>2014-08-18T14:36:55Z</time>
      </trkpt>
      <trkpt lat="46.23117" lon="-1.53566">
        <ele>3.501953</ele>
        <time>2014-08-18T14:37:11Z</time>
      </trkpt>
      <trkpt lat="46.23131" lon="-1.53642">
        <ele>3.501953</ele>
        <time>2014-08-18T14:37:24Z</time>
      </trkpt>
      <trkpt lat="46.23135" lon="-1.53672">
        <ele>3.02124</ele>
        <time>2014-08-18T14:37:29Z</time>
      </trkpt>
      <trkpt lat="46.23139" lon="-1.53689">
        <ele>3.02124</ele>
        <time>2014-08-18T14:37:32Z</time>
      </trkpt>
      <trkpt lat="46.23155" lon="-1.53775">
        <ele>3.02124</ele>
        <time>2014-08-18T14:37:48Z</time>
      </trkpt>
      <trkpt lat="46.23189" lon="-1.53862">
        <ele>2.540649</ele>
        <time>2014-08-18T14:38:04Z</time>
      </trkpt>
      <trkpt lat="46.23232" lon="-1.53976">
        <ele>3.501953</ele>
        <time>2014-08-18T14:38:23Z</time>
      </trkpt>
      <trkpt lat="46.23243" lon="-1.54003">
        <ele>4.463257</ele>
        <time>2014-08-18T14:38:27Z</time>
      </trkpt>
      <trkpt lat="46.23288" lon="-1.54118">
        <ele>4.463257</ele>
        <time>2014-08-18T14:38:46Z</time>
      </trkpt>
      <trkpt lat="46.2329" lon="-1.54124">
        <ele>3.501953</ele>
        <time>2014-08-18T14:38:47Z</time>
      </trkpt>
      <trkpt lat="46.23312" lon="-1.54123">
        <ele>3.02124</ele>
        <time>2014-08-18T14:38:54Z</time>
      </trkpt>
      <trkpt lat="46.23369" lon="-1.54058">
        <ele>2.060059</ele>
        <time>2014-08-18T14:39:09Z</time>
      </trkpt>
      <trkpt lat="46.23433" lon="-1.53999">
        <ele>2.540649</ele>
        <time>2014-08-18T14:39:25Z</time>
      </trkpt>
      <trkpt lat="46.23462" lon="-1.54009">
        <ele>3.501953</ele>
        <time>2014-08-18T14:39:33Z</time>
      </trkpt>
      <trkpt lat="46.23466" lon="-1.54018">
        <ele>3.501953</ele>
        <time>2014-08-18T14:39:35Z</time>
      </trkpt>
      <trkpt lat="46.23515" lon="-1.54108">
        <ele>3.02124</ele>
        <time>2014-08-18T14:39:53Z</time>
      </trkpt>
      <trkpt lat="46.23571" lon="-1.54213">
        <ele>2.540649</ele>
        <time>2014-08-18T14:40:15Z</time>
      </trkpt>
      <trkpt lat="46.23616" lon="-1.54296">
        <ele>3.02124</ele>
        <time>2014-08-18T14:40:33Z</time>
      </trkpt>
      <trkpt lat="46.23632" lon="-1.54324">
        <ele>3.02124</ele>
        <time>2014-08-18T14:40:39Z</time>
      </trkpt>
      <trkpt lat="46.23637" lon="-1.54349">
        <ele>3.02124</ele>
        <time>2014-08-18T14:40:43Z</time>
      </trkpt>
      <trkpt lat="46.23639" lon="-1.54442">
        <ele>3.02124</ele>
        <time>2014-08-18T14:41:01Z</time>
      </trkpt>
      <trkpt lat="46.2364" lon="-1.54448">
        <ele>3.02124</ele>
        <time>2014-08-18T14:41:03Z</time>
      </trkpt>
      <trkpt lat="46.23675" lon="-1.54448">
        <ele>3.02124</ele>
        <time>2014-08-18T14:41:15Z</time>
      </trkpt>
      <trkpt lat="46.23736" lon="-1.54436">
        <ele>2.540649</ele>
        <time>2014-08-18T14:41:30Z</time>
      </trkpt>
      <trkpt lat="46.23781" lon="-1.54436">
        <ele>3.02124</ele>
        <time>2014-08-18T14:41:41Z</time>
      </trkpt>
      <trkpt lat="46.2385" lon="-1.54419">
        <ele>3.02124</ele>
        <time>2014-08-18T14:41:57Z</time>
      </trkpt>
      <trkpt lat="46.23919" lon="-1.5441">
        <ele>3.02124</ele>
        <time>2014-08-18T14:42:14Z</time>
      </trkpt>
      <trkpt lat="46.23974" lon="-1.5441">
        <ele>3.02124</ele>
        <time>2014-08-18T14:42:31Z</time>
      </trkpt>
      <trkpt lat="46.23976" lon="-1.5441">
        <ele>3.501953</ele>
        <time>2014-08-18T14:42:33Z</time>
      </trkpt>
      <trkpt lat="46.23992" lon="-1.54433">
        <ele>3.02124</ele>
        <time>2014-08-18T14:42:47Z</time>
      </trkpt>
      <trkpt lat="46.24006" lon="-1.54425">
        <ele>3.02124</ele>
        <time>2014-08-18T14:43:01Z</time>
      </trkpt>
      <trkpt lat="46.24014" lon="-1.54421">
        <ele>3.982666</ele>
        <time>2014-08-18T14:43:15Z</time>
      </trkpt>
      <trkpt lat="46.24045" lon="-1.54412">
        <ele>3.501953</ele>
        <time>2014-08-18T14:43:27Z</time>
      </trkpt>
      <trkpt lat="46.24099" lon="-1.54402">
        <ele>3.982666</ele>
        <time>2014-08-18T14:43:44Z</time>
      </trkpt>
      <trkpt lat="46.24164" lon="-1.54389">
        <ele>3.02124</ele>
        <time>2014-08-18T14:43:58Z</time>
      </trkpt>
      <trkpt lat="46.24211" lon="-1.54388">
        <ele>4.463257</ele>
        <time>2014-08-18T14:44:11Z</time>
      </trkpt>
      <trkpt lat="46.24233" lon="-1.54398">
        <ele>4.463257</ele>
        <time>2014-08-18T14:44:22Z</time>
      </trkpt>
      <trkpt lat="46.2423" lon="-1.54441">
        <ele>4.463257</ele>
        <time>2014-08-18T14:44:36Z</time>
      </trkpt>
      <trkpt lat="46.24231" lon="-1.54449">
        <ele>4.463257</ele>
        <time>2014-08-18T14:44:48Z</time>
      </trkpt>
      <trkpt lat="46.24229" lon="-1.54474">
        <ele>4.943848</ele>
        <time>2014-08-18T14:45:10Z</time>
      </trkpt>
      <trkpt lat="46.24226" lon="-1.54546">
        <ele>4.943848</ele>
        <time>2014-08-18T14:45:30Z</time>
      </trkpt>
      <trkpt lat="46.24224" lon="-1.54576">
        <ele>3.982666</ele>
        <time>2014-08-18T14:45:41Z</time>
      </trkpt>
      <trkpt lat="46.24224" lon="-1.54584">
        <ele>3.982666</ele>
        <time>2014-08-18T14:45:57Z</time>
      </trkpt>
      <trkpt lat="46.24225" lon="-1.54585">
        <ele>4.463257</ele>
        <time>2014-08-18T14:46:03Z</time>
      </trkpt>
      <trkpt lat="46.24221" lon="-1.54624">
        <ele>4.463257</ele>
        <time>2014-08-18T14:46:18Z</time>
      </trkpt>
      <trkpt lat="46.24219" lon="-1.54673">
        <ele>4.463257</ele>
        <time>2014-08-18T14:46:36Z</time>
      </trkpt>
      <trkpt lat="46.24223" lon="-1.54737">
        <ele>3.982666</ele>
        <time>2014-08-18T14:46:52Z</time>
      </trkpt>
      <trkpt lat="46.24236" lon="-1.54814">
        <ele>4.943848</ele>
        <time>2014-08-18T14:47:11Z</time>
      </trkpt>
      <trkpt lat="46.24247" lon="-1.5489">
        <ele>4.463257</ele>
        <time>2014-08-18T14:47:28Z</time>
      </trkpt>
      <trkpt lat="46.24261" lon="-1.54971">
        <ele>3.501953</ele>
        <time>2014-08-18T14:47:45Z</time>
      </trkpt>
      <trkpt lat="46.24269" lon="-1.55022">
        <ele>4.463257</ele>
        <time>2014-08-18T14:47:56Z</time>
      </trkpt>
      <trkpt lat="46.24278" lon="-1.55085">
        <ele>3.982666</ele>
        <time>2014-08-18T14:48:10Z</time>
      </trkpt>
      <trkpt lat="46.24292" lon="-1.55172">
        <ele>3.982666</ele>
        <time>2014-08-18T14:48:28Z</time>
      </trkpt>
      <trkpt lat="46.24306" lon="-1.55264">
        <ele>3.501953</ele>
        <time>2014-08-18T14:48:45Z</time>
      </trkpt>
      <trkpt lat="46.24315" lon="-1.55349">
        <ele>3.501953</ele>
        <time>2014-08-18T14:49:03Z</time>
      </trkpt>
      <trkpt lat="46.24328" lon="-1.55392">
        <ele>3.982666</ele>
        <time>2014-08-18T14:49:16Z</time>
      </trkpt>
      <trkpt lat="46.24364" lon="-1.55476">
        <ele>3.501953</ele>
        <time>2014-08-18T14:49:32Z</time>
      </trkpt>
      <trkpt lat="46.24387" lon="-1.55558">
        <ele>4.463257</ele>
        <time>2014-08-18T14:49:47Z</time>
      </trkpt>
      <trkpt lat="46.24418" lon="-1.55673">
        <ele>3.982666</ele>
        <time>2014-08-18T14:50:08Z</time>
      </trkpt>
      <trkpt lat="46.24431" lon="-1.5572">
        <ele>3.982666</ele>
        <time>2014-08-18T14:50:19Z</time>
      </trkpt>
      <trkpt lat="46.24432" lon="-1.55776">
        <ele>4.943848</ele>
        <time>2014-08-18T14:50:31Z</time>
      </trkpt>
      <trkpt lat="46.24423" lon="-1.55799">
        <ele>3.501953</ele>
        <time>2014-08-18T14:50:35Z</time>
      </trkpt>
      <trkpt lat="46.24373" lon="-1.55859">
        <ele>3.02124</ele>
        <time>2014-08-18T14:50:50Z</time>
      </trkpt>
      <trkpt lat="46.2434" lon="-1.55882">
        <ele>3.02124</ele>
        <time>2014-08-18T14:51:06Z</time>
      </trkpt>
      <trkpt lat="46.24318" lon="-1.55897">
        <ele>3.02124</ele>
        <time>2014-08-18T14:51:21Z</time>
      </trkpt>
      <trkpt lat="46.24318" lon="-1.55897">
        <ele>2.540649</ele>
        <time>2014-08-18T14:51:42Z</time>
      </trkpt>
      <trkpt lat="46.24317" lon="-1.55897">
        <ele>2.540649</ele>
        <time>2014-08-18T14:52:12Z</time>
      </trkpt>
      <trkpt lat="46.24313" lon="-1.55895">
        <ele>2.540649</ele>
        <time>2014-08-18T14:52:33Z</time>
      </trkpt>
      <trkpt lat="46.2431" lon="-1.55886">
        <ele>2.540649</ele>
        <time>2014-08-18T14:52:49Z</time>
      </trkpt>
      <trkpt lat="46.2431" lon="-1.55881">
        <ele>2.540649</ele>
        <time>2014-08-18T14:53:07Z</time>
      </trkpt>
      <trkpt lat="46.2431" lon="-1.55879">
        <ele>3.02124</ele>
        <time>2014-08-18T14:54:39Z</time>
      </trkpt>
      <trkpt lat="46.24312" lon="-1.55879">
        <ele>3.02124</ele>
        <time>2014-08-18T14:55:50Z</time>
      </trkpt>
      <trkpt lat="46.24312" lon="-1.5588">
        <ele>3.501953</ele>
        <time>2014-08-18T14:56:12Z</time>
      </trkpt>
      <trkpt lat="46.24311" lon="-1.5588">
        <ele>3.501953</ele>
        <time>2014-08-18T14:57:17Z</time>
      </trkpt>
      <trkpt lat="46.24312" lon="-1.5588">
        <ele>3.501953</ele>
        <time>2014-08-18T14:58:12Z</time>
      </trkpt>
      <trkpt lat="46.24313" lon="-1.55879">
        <ele>2.540649</ele>
        <time>2014-08-18T14:58:59Z</time>
      </trkpt>
      <trkpt lat="46.24313" lon="-1.55879">
        <ele>3.501953</ele>
        <time>2014-08-18T14:59:54Z</time>
      </trkpt>
      <trkpt lat="46.24312" lon="-1.55886">
        <ele>3.982666</ele>
        <time>2014-08-18T15:00:43Z</time>
      </trkpt>
      <trkpt lat="46.24317" lon="-1.55891">
        <ele>3.982666</ele>
        <time>2014-08-18T15:01:30Z</time>
      </trkpt>
      <trkpt lat="46.24326" lon="-1.55889">
        <ele>3.982666</ele>
        <time>2014-08-18T15:01:43Z</time>
      </trkpt>
      <trkpt lat="46.2434" lon="-1.55874">
        <ele>3.982666</ele>
        <time>2014-08-18T15:02:03Z</time>
      </trkpt>
      <trkpt lat="46.24348" lon="-1.55868">
        <ele>4.463257</ele>
        <time>2014-08-18T15:02:38Z</time>
      </trkpt>
      <trkpt lat="46.24377" lon="-1.55852">
        <ele>4.463257</ele>
        <time>2014-08-18T15:02:52Z</time>
      </trkpt>
      <trkpt lat="46.24422" lon="-1.5579">
        <ele>5.905273</ele>
        <time>2014-08-18T15:03:10Z</time>
      </trkpt>
      <trkpt lat="46.24432" lon="-1.55759">
        <ele>6.866455</ele>
        <time>2014-08-18T15:03:18Z</time>
      </trkpt>
      <trkpt lat="46.24453" lon="-1.55746">
        <ele>7.827881</ele>
        <time>2014-08-18T15:03:28Z</time>
      </trkpt>
      <trkpt lat="46.24459" lon="-1.55757">
        <ele>8.789185</ele>
        <time>2014-08-18T15:03:38Z</time>
      </trkpt>
      <trkpt lat="46.24459" lon="-1.55754">
        <ele>8.308594</ele>
        <time>2014-08-18T15:03:40Z</time>
      </trkpt>
      <trkpt lat="46.24463" lon="-1.55751">
        <ele>9.75061</ele>
        <time>2014-08-18T15:03:55Z</time>
      </trkpt>
      <trkpt lat="46.24463" lon="-1.55755">
        <ele>10.231201</ele>
        <time>2014-08-18T15:04:20Z</time>
      </trkpt>
      <trkpt lat="46.24465" lon="-1.55758">
        <ele>9.75061</ele>
        <time>2014-08-18T15:04:22Z</time>
      </trkpt>
      <trkpt lat="46.24471" lon="-1.55779">
        <ele>10.231201</ele>
        <time>2014-08-18T15:04:40Z</time>
      </trkpt>
      <trkpt lat="46.24467" lon="-1.55764">
        <ele>3.501953</ele>
        <time>2014-08-18T15:04:52Z</time>
      </trkpt>
      <trkpt lat="46.24467" lon="-1.55763">
        <ele>7.347168</ele>
        <time>2014-08-18T15:04:53Z</time>
      </trkpt>
      <trkpt lat="46.24467" lon="-1.55763">
        <ele>8.308594</ele>
        <time>2014-08-18T15:04:55Z</time>
      </trkpt>
      <trkpt lat="46.24468" lon="-1.55764">
        <ele>12.153809</ele>
        <time>2014-08-18T15:05:13Z</time>
      </trkpt>
      <trkpt lat="46.24464" lon="-1.55757">
        <ele>8.789185</ele>
        <time>2014-08-18T15:05:23Z</time>
      </trkpt>
      <trkpt lat="46.2446" lon="-1.55752">
        <ele>8.789185</ele>
        <time>2014-08-18T15:05:38Z</time>
      </trkpt>
      <trkpt lat="46.24461" lon="-1.55749">
        <ele>9.75061</ele>
        <time>2014-08-18T15:06:04Z</time>
      </trkpt>
      <trkpt lat="46.24463" lon="-1.55755">
        <ele>9.269897</ele>
        <time>2014-08-18T15:06:28Z</time>
      </trkpt>
      <trkpt lat="46.24461" lon="-1.55753">
        <ele>9.269897</ele>
        <time>2014-08-18T15:06:48Z</time>
      </trkpt>
      <trkpt lat="46.24462" lon="-1.55753">
        <ele>8.789185</ele>
        <time>2014-08-18T15:07:06Z</time>
      </trkpt>
      <trkpt lat="46.24461" lon="-1.55751">
        <ele>9.269897</ele>
        <time>2014-08-18T15:07:20Z</time>
      </trkpt>
      <trkpt lat="46.24461" lon="-1.55755">
        <ele>9.269897</ele>
        <time>2014-08-18T15:07:34Z</time>
      </trkpt>
      <trkpt lat="46.24461" lon="-1.55753">
        <ele>8.308594</ele>
        <time>2014-08-18T15:08:00Z</time>
      </trkpt>
      <trkpt lat="46.24458" lon="-1.55756">
        <ele>8.308594</ele>
        <time>2014-08-18T15:08:20Z</time>
      </trkpt>
      <trkpt lat="46.24457" lon="-1.55759">
        <ele>7.827881</ele>
        <time>2014-08-18T15:08:32Z</time>
      </trkpt>
      <trkpt lat="46.24457" lon="-1.55758">
        <ele>8.308594</ele>
        <time>2014-08-18T15:08:55Z</time>
      </trkpt>
      <trkpt lat="46.24458" lon="-1.55758">
        <ele>8.308594</ele>
        <time>2014-08-18T15:09:00Z</time>
      </trkpt>
      <trkpt lat="46.24457" lon="-1.55756">
        <ele>7.347168</ele>
        <time>2014-08-18T15:09:06Z</time>
      </trkpt>
      <trkpt lat="46.24449" lon="-1.5575">
        <ele>7.827881</ele>
        <time>2014-08-18T15:09:14Z</time>
      </trkpt>
      <trkpt lat="46.24433" lon="-1.5575">
        <ele>5.905273</ele>
        <time>2014-08-18T15:09:24Z</time>
      </trkpt>
      <trkpt lat="46.24424" lon="-1.55712">
        <ele>5.424561</ele>
        <time>2014-08-18T15:09:36Z</time>
      </trkpt>
      <trkpt lat="46.24404" lon="-1.55642">
        <ele>4.463257</ele>
        <time>2014-08-18T15:09:48Z</time>
      </trkpt>
      <trkpt lat="46.24384" lon="-1.55565">
        <ele>4.943848</ele>
        <time>2014-08-18T15:10:03Z</time>
      </trkpt>
      <trkpt lat="46.24368" lon="-1.55505">
        <ele>4.463257</ele>
        <time>2014-08-18T15:10:16Z</time>
      </trkpt>
      <trkpt lat="46.24344" lon="-1.55443">
        <ele>4.463257</ele>
        <time>2014-08-18T15:10:30Z</time>
      </trkpt>
      <trkpt lat="46.24316" lon="-1.55376">
        <ele>4.463257</ele>
        <time>2014-08-18T15:10:48Z</time>
      </trkpt>
      <trkpt lat="46.24308" lon="-1.5532">
        <ele>3.982666</ele>
        <time>2014-08-18T15:11:03Z</time>
      </trkpt>
      <trkpt lat="46.24297" lon="-1.55243">
        <ele>3.982666</ele>
        <time>2014-08-18T15:11:18Z</time>
      </trkpt>
      <trkpt lat="46.24283" lon="-1.5515">
        <ele>4.463257</ele>
        <time>2014-08-18T15:11:36Z</time>
      </trkpt>
      <trkpt lat="46.24274" lon="-1.55091">
        <ele>4.943848</ele>
        <time>2014-08-18T15:11:52Z</time>
      </trkpt>
      <trkpt lat="46.24264" lon="-1.55023">
        <ele>3.501953</ele>
        <time>2014-08-18T15:12:09Z</time>
      </trkpt>
      <trkpt lat="46.24252" lon="-1.54956">
        <ele>4.943848</ele>
        <time>2014-08-18T15:12:25Z</time>
      </trkpt>
      <trkpt lat="46.24243" lon="-1.54903">
        <ele>5.424561</ele>
        <time>2014-08-18T15:12:40Z</time>
      </trkpt>
      <trkpt lat="46.24236" lon="-1.54849">
        <ele>4.943848</ele>
        <time>2014-08-18T15:12:52Z</time>
      </trkpt>
      <trkpt lat="46.24223" lon="-1.5476">
        <ele>5.424561</ele>
        <time>2014-08-18T15:13:08Z</time>
      </trkpt>
      <trkpt lat="46.24216" lon="-1.5466">
        <ele>5.424561</ele>
        <time>2014-08-18T15:13:24Z</time>
      </trkpt>
      <trkpt lat="46.24219" lon="-1.54591">
        <ele>5.905273</ele>
        <time>2014-08-18T15:13:39Z</time>
      </trkpt>
      <trkpt lat="46.24223" lon="-1.54472">
        <ele>5.905273</ele>
        <time>2014-08-18T15:13:58Z</time>
      </trkpt>
      <trkpt lat="46.24227" lon="-1.54405">
        <ele>5.905273</ele>
        <time>2014-08-18T15:14:09Z</time>
      </trkpt>
      <trkpt lat="46.24203" lon="-1.54388">
        <ele>5.424561</ele>
        <time>2014-08-18T15:14:16Z</time>
      </trkpt>
      <trkpt lat="46.24189" lon="-1.54383">
        <ele>4.943848</ele>
        <time>2014-08-18T15:14:19Z</time>
      </trkpt>
      <trkpt lat="46.24125" lon="-1.54397">
        <ele>4.463257</ele>
        <time>2014-08-18T15:14:34Z</time>
      </trkpt>
      <trkpt lat="46.24046" lon="-1.54415">
        <ele>5.424561</ele>
        <time>2014-08-18T15:14:53Z</time>
      </trkpt>
      <trkpt lat="46.2402" lon="-1.54421">
        <ele>4.463257</ele>
        <time>2014-08-18T15:14:59Z</time>
      </trkpt>
      <trkpt lat="46.23981" lon="-1.54432">
        <ele>4.463257</ele>
        <time>2014-08-18T15:15:12Z</time>
      </trkpt>
      <trkpt lat="46.2395" lon="-1.54415">
        <ele>3.982666</ele>
        <time>2014-08-18T15:15:23Z</time>
      </trkpt>
      <trkpt lat="46.23884" lon="-1.54414">
        <ele>3.501953</ele>
        <time>2014-08-18T15:15:41Z</time>
      </trkpt>
      <trkpt lat="46.23797" lon="-1.54432">
        <ele>4.463257</ele>
        <time>2014-08-18T15:16:01Z</time>
      </trkpt>
      <trkpt lat="46.23725" lon="-1.54439">
        <ele>3.982666</ele>
        <time>2014-08-18T15:16:17Z</time>
      </trkpt>
      <trkpt lat="46.23703" lon="-1.54443">
        <ele>4.463257</ele>
        <time>2014-08-18T15:16:22Z</time>
      </trkpt>
      <trkpt lat="46.23646" lon="-1.54455">
        <ele>3.02124</ele>
        <time>2014-08-18T15:16:34Z</time>
      </trkpt>
      <trkpt lat="46.23633" lon="-1.54437">
        <ele>2.060059</ele>
        <time>2014-08-18T15:16:39Z</time>
      </trkpt>
      <trkpt lat="46.2363" lon="-1.54345">
        <ele>3.02124</ele>
        <time>2014-08-18T15:16:52Z</time>
      </trkpt>
      <trkpt lat="46.23623" lon="-1.54319">
        <ele>3.501953</ele>
        <time>2014-08-18T15:16:56Z</time>
      </trkpt>
      <trkpt lat="46.23565" lon="-1.54212">
        <ele>3.501953</ele>
        <time>2014-08-18T15:17:15Z</time>
      </trkpt>
      <trkpt lat="46.23512" lon="-1.54115">
        <ele>3.02124</ele>
        <time>2014-08-18T15:17:32Z</time>
      </trkpt>
      <trkpt lat="46.23453" lon="-1.54006">
        <ele>3.982666</ele>
        <time>2014-08-18T15:17:52Z</time>
      </trkpt>
      <trkpt lat="46.23447" lon="-1.54">
        <ele>3.501953</ele>
        <time>2014-08-18T15:17:54Z</time>
      </trkpt>
      <trkpt lat="46.23423" lon="-1.54005">
        <ele>3.982666</ele>
        <time>2014-08-18T15:18:00Z</time>
      </trkpt>
      <trkpt lat="46.23328" lon="-1.54097">
        <ele>3.982666</ele>
        <time>2014-08-18T15:18:24Z</time>
      </trkpt>
      <trkpt lat="46.23301" lon="-1.54129">
        <ele>3.982666</ele>
        <time>2014-08-18T15:18:31Z</time>
      </trkpt>
      <trkpt lat="46.23287" lon="-1.54127">
        <ele>3.02124</ele>
        <time>2014-08-18T15:18:35Z</time>
      </trkpt>
      <trkpt lat="46.23231" lon="-1.53984">
        <ele>3.982666</ele>
        <time>2014-08-18T15:18:58Z</time>
      </trkpt>
      <trkpt lat="46.23188" lon="-1.53873">
        <ele>3.501953</ele>
        <time>2014-08-18T15:19:16Z</time>
      </trkpt>
      <trkpt lat="46.2315" lon="-1.53772">
        <ele>3.501953</ele>
        <time>2014-08-18T15:19:31Z</time>
      </trkpt>
      <trkpt lat="46.23129" lon="-1.53658">
        <ele>4.943848</ele>
        <time>2014-08-18T15:19:48Z</time>
      </trkpt>
      <trkpt lat="46.23117" lon="-1.53591">
        <ele>4.943848</ele>
        <time>2014-08-18T15:19:58Z</time>
      </trkpt>
      <trkpt lat="46.23092" lon="-1.53445">
        <ele>5.424561</ele>
        <time>2014-08-18T15:20:20Z</time>
      </trkpt>
      <trkpt lat="46.23063" lon="-1.53323">
        <ele>3.982666</ele>
        <time>2014-08-18T15:20:38Z</time>
      </trkpt>
      <trkpt lat="46.23011" lon="-1.53186">
        <ele>3.501953</ele>
        <time>2014-08-18T15:21:00Z</time>
      </trkpt>
      <trkpt lat="46.23002" lon="-1.53164">
        <ele>3.501953</ele>
        <time>2014-08-18T15:21:04Z</time>
      </trkpt>
      <trkpt lat="46.22982" lon="-1.53167">
        <ele>3.982666</ele>
        <time>2014-08-18T15:21:11Z</time>
      </trkpt>
      <trkpt lat="46.2298" lon="-1.53169">
        <ele>4.943848</ele>
        <time>2014-08-18T15:21:12Z</time>
      </trkpt>
      <trkpt lat="46.22927" lon="-1.53228">
        <ele>4.463257</ele>
        <time>2014-08-18T15:21:27Z</time>
      </trkpt>
      <trkpt lat="46.22904" lon="-1.53251">
        <ele>5.424561</ele>
        <time>2014-08-18T15:21:33Z</time>
      </trkpt>
      <trkpt lat="46.22841" lon="-1.53323">
        <ele>5.424561</ele>
        <time>2014-08-18T15:21:51Z</time>
      </trkpt>
      <trkpt lat="46.22765" lon="-1.53405">
        <ele>4.943848</ele>
        <time>2014-08-18T15:22:11Z</time>
      </trkpt>
      <trkpt lat="46.22719" lon="-1.53444">
        <ele>4.463257</ele>
        <time>2014-08-18T15:22:22Z</time>
      </trkpt>
      <trkpt lat="46.22709" lon="-1.53462">
        <ele>3.982666</ele>
        <time>2014-08-18T15:22:26Z</time>
      </trkpt>
      <trkpt lat="46.22699" lon="-1.53449">
        <ele>3.982666</ele>
        <time>2014-08-18T15:22:30Z</time>
      </trkpt>
      <trkpt lat="46.22693" lon="-1.53425">
        <ele>3.982666</ele>
        <time>2014-08-18T15:22:34Z</time>
      </trkpt>
      <trkpt lat="46.22695" lon="-1.5339">
        <ele>3.501953</ele>
        <time>2014-08-18T15:22:40Z</time>
      </trkpt>
      <trkpt lat="46.22694" lon="-1.53364">
        <ele>3.982666</ele>
        <time>2014-08-18T15:22:44Z</time>
      </trkpt>
      <trkpt lat="46.22659" lon="-1.53234">
        <ele>3.982666</ele>
        <time>2014-08-18T15:23:06Z</time>
      </trkpt>
      <trkpt lat="46.22648" lon="-1.53175">
        <ele>3.982666</ele>
        <time>2014-08-18T15:23:16Z</time>
      </trkpt>
      <trkpt lat="46.22606" lon="-1.53105">
        <ele>3.501953</ele>
        <time>2014-08-18T15:23:30Z</time>
      </trkpt>
      <trkpt lat="46.22564" lon="-1.52982">
        <ele>3.982666</ele>
        <time>2014-08-18T15:23:49Z</time>
      </trkpt>
      <trkpt lat="46.22515" lon="-1.5285">
        <ele>4.463257</ele>
        <time>2014-08-18T15:24:09Z</time>
      </trkpt>
      <trkpt lat="46.22469" lon="-1.52741">
        <ele>3.501953</ele>
        <time>2014-08-18T15:24:25Z</time>
      </trkpt>
      <trkpt lat="46.2242" lon="-1.52618">
        <ele>3.982666</ele>
        <time>2014-08-18T15:24:43Z</time>
      </trkpt>
      <trkpt lat="46.22347" lon="-1.52523">
        <ele>4.463257</ele>
        <time>2014-08-18T15:25:01Z</time>
      </trkpt>
      <trkpt lat="46.22285" lon="-1.52485">
        <ele>4.463257</ele>
        <time>2014-08-18T15:25:13Z</time>
      </trkpt>
      <trkpt lat="46.22258" lon="-1.52446">
        <ele>4.463257</ele>
        <time>2014-08-18T15:25:20Z</time>
      </trkpt>
      <trkpt lat="46.2224" lon="-1.52432">
        <ele>5.424561</ele>
        <time>2014-08-18T15:25:24Z</time>
      </trkpt>
      <trkpt lat="46.22229" lon="-1.52429">
        <ele>4.463257</ele>
        <time>2014-08-18T15:25:26Z</time>
      </trkpt>
      <trkpt lat="46.22135" lon="-1.52415">
        <ele>4.943848</ele>
        <time>2014-08-18T15:25:43Z</time>
      </trkpt>
      <trkpt lat="46.22097" lon="-1.52395">
        <ele>3.02124</ele>
        <time>2014-08-18T15:25:50Z</time>
      </trkpt>
      <trkpt lat="46.22041" lon="-1.52336">
        <ele>4.463257</ele>
        <time>2014-08-18T15:26:04Z</time>
      </trkpt>
      <trkpt lat="46.21967" lon="-1.5222">
        <ele>3.982666</ele>
        <time>2014-08-18T15:26:24Z</time>
      </trkpt>
      <trkpt lat="46.21929" lon="-1.52151">
        <ele>3.982666</ele>
        <time>2014-08-18T15:26:35Z</time>
      </trkpt>
      <trkpt lat="46.21921" lon="-1.52103">
        <ele>4.463257</ele>
        <time>2014-08-18T15:26:41Z</time>
      </trkpt>
      <trkpt lat="46.21924" lon="-1.52069">
        <ele>4.463257</ele>
        <time>2014-08-18T15:26:45Z</time>
      </trkpt>
      <trkpt lat="46.21913" lon="-1.52037">
        <ele>4.463257</ele>
        <time>2014-08-18T15:26:50Z</time>
      </trkpt>
      <trkpt lat="46.2184" lon="-1.51973">
        <ele>3.982666</ele>
        <time>2014-08-18T15:27:08Z</time>
      </trkpt>
      <trkpt lat="46.21793" lon="-1.51936">
        <ele>3.02124</ele>
        <time>2014-08-18T15:27:21Z</time>
      </trkpt>
      <trkpt lat="46.21782" lon="-1.51917">
        <ele>3.02124</ele>
        <time>2014-08-18T15:27:25Z</time>
      </trkpt>
      <trkpt lat="46.21771" lon="-1.51899">
        <ele>3.501953</ele>
        <time>2014-08-18T15:27:29Z</time>
      </trkpt>
      <trkpt lat="46.21719" lon="-1.51859">
        <ele>2.540649</ele>
        <time>2014-08-18T15:27:44Z</time>
      </trkpt>
      <trkpt lat="46.21659" lon="-1.51855">
        <ele>2.540649</ele>
        <time>2014-08-18T15:27:58Z</time>
      </trkpt>
      <trkpt lat="46.21645" lon="-1.51851">
        <ele>2.060059</ele>
        <time>2014-08-18T15:28:01Z</time>
      </trkpt>
      <trkpt lat="46.21564" lon="-1.51788">
        <ele>3.02124</ele>
        <time>2014-08-18T15:28:21Z</time>
      </trkpt>
      <trkpt lat="46.21533" lon="-1.51755">
        <ele>3.982666</ele>
        <time>2014-08-18T15:28:29Z</time>
      </trkpt>
      <trkpt lat="46.21519" lon="-1.51722">
        <ele>3.982666</ele>
        <time>2014-08-18T15:28:35Z</time>
      </trkpt>
      <trkpt lat="46.21467" lon="-1.51656">
        <ele>3.02124</ele>
        <time>2014-08-18T15:28:50Z</time>
      </trkpt>
      <trkpt lat="46.21386" lon="-1.51626">
        <ele>3.02124</ele>
        <time>2014-08-18T15:29:07Z</time>
      </trkpt>
      <trkpt lat="46.21308" lon="-1.51581">
        <ele>3.501953</ele>
        <time>2014-08-18T15:29:24Z</time>
      </trkpt>
      <trkpt lat="46.21259" lon="-1.51543">
        <ele>3.501953</ele>
        <time>2014-08-18T15:29:38Z</time>
      </trkpt>
      <trkpt lat="46.21222" lon="-1.51483">
        <ele>3.02124</ele>
        <time>2014-08-18T15:29:55Z</time>
      </trkpt>
      <trkpt lat="46.21172" lon="-1.51434">
        <ele>3.02124</ele>
        <time>2014-08-18T15:30:11Z</time>
      </trkpt>
      <trkpt lat="46.21133" lon="-1.51395">
        <ele>2.540649</ele>
        <time>2014-08-18T15:30:26Z</time>
      </trkpt>
      <trkpt lat="46.21104" lon="-1.5134">
        <ele>3.02124</ele>
        <time>2014-08-18T15:30:40Z</time>
      </trkpt>
      <trkpt lat="46.211" lon="-1.5134">
        <ele>3.02124</ele>
        <time>2014-08-18T15:30:48Z</time>
      </trkpt>
      <trkpt lat="46.21091" lon="-1.51339">
        <ele>3.02124</ele>
        <time>2014-08-18T15:30:54Z</time>
      </trkpt>
      <trkpt lat="46.21073" lon="-1.51272">
        <ele>3.02124</ele>
        <time>2014-08-18T15:31:11Z</time>
      </trkpt>
      <trkpt lat="46.2107" lon="-1.51263">
        <ele>3.02124</ele>
        <time>2014-08-18T15:31:21Z</time>
      </trkpt>
      <trkpt lat="46.21066" lon="-1.51223">
        <ele>3.982666</ele>
        <time>2014-08-18T15:31:36Z</time>
      </trkpt>
      <trkpt lat="46.21065" lon="-1.51221">
        <ele>3.501953</ele>
        <time>2014-08-18T15:31:37Z</time>
      </trkpt>
      <trkpt lat="46.21059" lon="-1.51216">
        <ele>3.501953</ele>
        <time>2014-08-18T15:31:41Z</time>
      </trkpt>
      <trkpt lat="46.21028" lon="-1.51236">
        <ele>3.02124</ele>
        <time>2014-08-18T15:31:54Z</time>
      </trkpt>
      <trkpt lat="46.20988" lon="-1.51226">
        <ele>3.501953</ele>
        <time>2014-08-18T15:32:07Z</time>
      </trkpt>
      <trkpt lat="46.20953" lon="-1.51185">
        <ele>2.540649</ele>
        <time>2014-08-18T15:32:21Z</time>
      </trkpt>
      <trkpt lat="46.20912" lon="-1.51126">
        <ele>3.02124</ele>
        <time>2014-08-18T15:32:37Z</time>
      </trkpt>
      <trkpt lat="46.20907" lon="-1.51121">
        <ele>2.540649</ele>
        <time>2014-08-18T15:32:39Z</time>
      </trkpt>
      <trkpt lat="46.209" lon="-1.51097">
        <ele>2.540649</ele>
        <time>2014-08-18T15:32:46Z</time>
      </trkpt>
      <trkpt lat="46.20878" lon="-1.51023">
        <ele>2.540649</ele>
        <time>2014-08-18T15:33:02Z</time>
      </trkpt>
      <trkpt lat="46.20836" lon="-1.50955">
        <ele>3.02124</ele>
        <time>2014-08-18T15:33:17Z</time>
      </trkpt>
      <trkpt lat="46.20769" lon="-1.50872">
        <ele>3.02124</ele>
        <time>2014-08-18T15:33:36Z</time>
      </trkpt>
      <trkpt lat="46.20712" lon="-1.50778">
        <ele>3.02124</ele>
        <time>2014-08-18T15:33:56Z</time>
      </trkpt>
      <trkpt lat="46.20708" lon="-1.50747">
        <ele>2.540649</ele>
        <time>2014-08-18T15:34:02Z</time>
      </trkpt>
      <trkpt lat="46.20706" lon="-1.50728">
        <ele>3.02124</ele>
        <time>2014-08-18T15:34:05Z</time>
      </trkpt>
      <trkpt lat="46.20694" lon="-1.50629">
        <ele>2.540649</ele>
        <time>2014-08-18T15:34:23Z</time>
      </trkpt>
      <trkpt lat="46.20654" lon="-1.50553">
        <ele>3.02124</ele>
        <time>2014-08-18T15:34:40Z</time>
      </trkpt>
      <trkpt lat="46.20587" lon="-1.50507">
        <ele>3.02124</ele>
        <time>2014-08-18T15:34:57Z</time>
      </trkpt>
      <trkpt lat="46.20528" lon="-1.50471">
        <ele>3.02124</ele>
        <time>2014-08-18T15:35:10Z</time>
      </trkpt>
      <trkpt lat="46.20514" lon="-1.50451">
        <ele>3.02124</ele>
        <time>2014-08-18T15:35:14Z</time>
      </trkpt>
      <trkpt lat="46.20453" lon="-1.50359">
        <ele>3.501953</ele>
        <time>2014-08-18T15:35:31Z</time>
      </trkpt>
      <trkpt lat="46.20407" lon="-1.5024">
        <ele>3.982666</ele>
        <time>2014-08-18T15:35:49Z</time>
      </trkpt>
      <trkpt lat="46.20397" lon="-1.50126">
        <ele>3.02124</ele>
        <time>2014-08-18T15:36:04Z</time>
      </trkpt>
      <trkpt lat="46.20401" lon="-1.49982">
        <ele>3.501953</ele>
        <time>2014-08-18T15:36:23Z</time>
      </trkpt>
      <trkpt lat="46.20409" lon="-1.49946">
        <ele>3.982666</ele>
        <time>2014-08-18T15:36:28Z</time>
      </trkpt>
      <trkpt lat="46.2041" lon="-1.49919">
        <ele>3.982666</ele>
        <time>2014-08-18T15:36:32Z</time>
      </trkpt>
      <trkpt lat="46.20396" lon="-1.49804">
        <ele>2.540649</ele>
        <time>2014-08-18T15:36:51Z</time>
      </trkpt>
      <trkpt lat="46.2035" lon="-1.4973">
        <ele>3.501953</ele>
        <time>2014-08-18T15:37:06Z</time>
      </trkpt>
      <trkpt lat="46.20344" lon="-1.49721">
        <ele>3.02124</ele>
        <time>2014-08-18T15:37:08Z</time>
      </trkpt>
      <trkpt lat="46.20298" lon="-1.49634">
        <ele>3.02124</ele>
        <time>2014-08-18T15:37:23Z</time>
      </trkpt>
      <trkpt lat="46.20264" lon="-1.4955">
        <ele>2.540649</ele>
        <time>2014-08-18T15:37:38Z</time>
      </trkpt>
      <trkpt lat="46.20217" lon="-1.49425">
        <ele>2.540649</ele>
        <time>2014-08-18T15:37:59Z</time>
      </trkpt>
      <trkpt lat="46.20207" lon="-1.49381">
        <ele>3.02124</ele>
        <time>2014-08-18T15:38:05Z</time>
      </trkpt>
      <trkpt lat="46.20218" lon="-1.49285">
        <ele>3.02124</ele>
        <time>2014-08-18T15:38:19Z</time>
      </trkpt>
      <trkpt lat="46.20217" lon="-1.49197">
        <ele>2.060059</ele>
        <time>2014-08-18T15:38:35Z</time>
      </trkpt>
      <trkpt lat="46.20199" lon="-1.4913">
        <ele>3.02124</ele>
        <time>2014-08-18T15:38:55Z</time>
      </trkpt>
      <trkpt lat="46.20183" lon="-1.4908">
        <ele>3.02124</ele>
        <time>2014-08-18T15:39:11Z</time>
      </trkpt>
      <trkpt lat="46.20162" lon="-1.49007">
        <ele>2.540649</ele>
        <time>2014-08-18T15:39:30Z</time>
      </trkpt>
      <trkpt lat="46.20138" lon="-1.48927">
        <ele>2.060059</ele>
        <time>2014-08-18T15:39:49Z</time>
      </trkpt>
      <trkpt lat="46.20121" lon="-1.48865">
        <ele>2.060059</ele>
        <time>2014-08-18T15:40:05Z</time>
      </trkpt>
      <trkpt lat="46.20104" lon="-1.48808">
        <ele>2.060059</ele>
        <time>2014-08-18T15:40:20Z</time>
      </trkpt>
      <trkpt lat="46.20099" lon="-1.48748">
        <ele>2.540649</ele>
        <time>2014-08-18T15:40:37Z</time>
      </trkpt>
      <trkpt lat="46.20111" lon="-1.48695">
        <ele>3.982666</ele>
        <time>2014-08-18T15:40:53Z</time>
      </trkpt>
      <trkpt lat="46.20134" lon="-1.48656">
        <ele>3.982666</ele>
        <time>2014-08-18T15:41:07Z</time>
      </trkpt>
      <trkpt lat="46.20157" lon="-1.48618">
        <ele>3.982666</ele>
        <time>2014-08-18T15:41:20Z</time>
      </trkpt>
      <trkpt lat="46.20182" lon="-1.48553">
        <ele>3.982666</ele>
        <time>2014-08-18T15:41:36Z</time>
      </trkpt>
      <trkpt lat="46.202" lon="-1.48484">
        <ele>3.982666</ele>
        <time>2014-08-18T15:41:52Z</time>
      </trkpt>
      <trkpt lat="46.20217" lon="-1.48392">
        <ele>3.02124</ele>
        <time>2014-08-18T15:42:09Z</time>
      </trkpt>
      <trkpt lat="46.20228" lon="-1.48307">
        <ele>3.982666</ele>
        <time>2014-08-18T15:42:26Z</time>
      </trkpt>
      <trkpt lat="46.20245" lon="-1.48215">
        <ele>3.982666</ele>
        <time>2014-08-18T15:42:45Z</time>
      </trkpt>
      <trkpt lat="46.20273" lon="-1.48113">
        <ele>3.982666</ele>
        <time>2014-08-18T15:43:04Z</time>
      </trkpt>
      <trkpt lat="46.20305" lon="-1.48046">
        <ele>3.501953</ele>
        <time>2014-08-18T15:43:20Z</time>
      </trkpt>
      <trkpt lat="46.20345" lon="-1.47957">
        <ele>3.02124</ele>
        <time>2014-08-18T15:43:40Z</time>
      </trkpt>
      <trkpt lat="46.20374" lon="-1.47888">
        <ele>2.540649</ele>
        <time>2014-08-18T15:43:56Z</time>
      </trkpt>
      <trkpt lat="46.20406" lon="-1.47812">
        <ele>2.540649</ele>
        <time>2014-08-18T15:44:15Z</time>
      </trkpt>
      <trkpt lat="46.2042" lon="-1.47753">
        <ele>3.501953</ele>
        <time>2014-08-18T15:44:29Z</time>
      </trkpt>
      <trkpt lat="46.20443" lon="-1.47654">
        <ele>3.501953</ele>
        <time>2014-08-18T15:44:48Z</time>
      </trkpt>
      <trkpt lat="46.20446" lon="-1.47642">
        <ele>3.982666</ele>
        <time>2014-08-18T15:44:50Z</time>
      </trkpt>
      <trkpt lat="46.20461" lon="-1.47618">
        <ele>3.982666</ele>
        <time>2014-08-18T15:44:55Z</time>
      </trkpt>
      <trkpt lat="46.2047" lon="-1.4761">
        <ele>3.982666</ele>
        <time>2014-08-18T15:44:57Z</time>
      </trkpt>
      <trkpt lat="46.20498" lon="-1.47564">
        <ele>3.02124</ele>
        <time>2014-08-18T15:45:06Z</time>
      </trkpt>
      <trkpt lat="46.20539" lon="-1.47478">
        <ele>2.540649</ele>
        <time>2014-08-18T15:45:22Z</time>
      </trkpt>
      <trkpt lat="46.20551" lon="-1.47462">
        <ele>2.540649</ele>
        <time>2014-08-18T15:45:26Z</time>
      </trkpt>
      <trkpt lat="46.20599" lon="-1.47429">
        <ele>2.540649</ele>
        <time>2014-08-18T15:45:43Z</time>
      </trkpt>
      <trkpt lat="46.20637" lon="-1.47409">
        <ele>3.02124</ele>
        <time>2014-08-18T15:45:55Z</time>
      </trkpt>
      <trkpt lat="46.20687" lon="-1.474">
        <ele>3.501953</ele>
        <time>2014-08-18T15:46:06Z</time>
      </trkpt>
      <trkpt lat="46.20713" lon="-1.47396">
        <ele>3.02124</ele>
        <time>2014-08-18T15:46:12Z</time>
      </trkpt>
      <trkpt lat="46.20718" lon="-1.47369">
        <ele>3.02124</ele>
        <time>2014-08-18T15:46:19Z</time>
      </trkpt>
      <trkpt lat="46.20673" lon="-1.47324">
        <ele>3.02124</ele>
        <time>2014-08-18T15:46:31Z</time>
      </trkpt>
      <trkpt lat="46.20625" lon="-1.47261">
        <ele>3.02124</ele>
        <time>2014-08-18T15:46:45Z</time>
      </trkpt>
      <trkpt lat="46.20602" lon="-1.47249">
        <ele>3.02124</ele>
        <time>2014-08-18T15:46:51Z</time>
      </trkpt>
      <trkpt lat="46.20583" lon="-1.4721">
        <ele>3.02124</ele>
        <time>2014-08-18T15:47:02Z</time>
      </trkpt>
      <trkpt lat="46.20569" lon="-1.47138">
        <ele>3.02124</ele>
        <time>2014-08-18T15:47:18Z</time>
      </trkpt>
      <trkpt lat="46.20566" lon="-1.4713">
        <ele>2.060059</ele>
        <time>2014-08-18T15:47:21Z</time>
      </trkpt>
      <trkpt lat="46.20594" lon="-1.47109">
        <ele>3.02124</ele>
        <time>2014-08-18T15:47:34Z</time>
      </trkpt>
      <trkpt lat="46.2064" lon="-1.47074">
        <ele>3.02124</ele>
        <time>2014-08-18T15:47:52Z</time>
      </trkpt>
      <trkpt lat="46.20647" lon="-1.47069">
        <ele>2.060059</ele>
        <time>2014-08-18T15:48:02Z</time>
      </trkpt>
      <trkpt lat="46.20647" lon="-1.47069">
        <ele>2.060059</ele>
        <time>2014-08-18T15:48:29Z</time>
      </trkpt>
      <trkpt lat="46.20648" lon="-1.47068">
        <ele>2.540649</ele>
        <time>2014-08-18T15:48:58Z</time>
      </trkpt>
      <trkpt lat="46.20648" lon="-1.47068">
        <ele>1.579346</ele>
        <time>2014-08-18T15:49:32Z</time>
      </trkpt>
      <trkpt lat="46.20648" lon="-1.47068">
        <ele>2.060059</ele>
        <time>2014-08-18T15:50:01Z</time>
      </trkpt>
      <trkpt lat="46.20651" lon="-1.4707">
        <ele>1.579346</ele>
        <time>2014-08-18T15:50:13Z</time>
      </trkpt>
      <trkpt lat="46.2065" lon="-1.47071">
        <ele>2.060059</ele>
        <time>2014-08-18T15:50:32Z</time>
      </trkpt>
      <trkpt lat="46.20661" lon="-1.47064">
        <ele>1.579346</ele>
        <time>2014-08-18T15:50:58Z</time>
      </trkpt>
      <trkpt lat="46.20711" lon="-1.4705">
        <ele>2.540649</ele>
        <time>2014-08-18T15:51:14Z</time>
      </trkpt>
      <trkpt lat="46.20769" lon="-1.47018">
        <ele>2.540649</ele>
        <time>2014-08-18T15:51:31Z</time>
      </trkpt>
      <trkpt lat="46.20838" lon="-1.46962">
        <ele>2.060059</ele>
        <time>2014-08-18T15:51:50Z</time>
      </trkpt>
      <trkpt lat="46.20901" lon="-1.46912">
        <ele>2.540649</ele>
        <time>2014-08-18T15:52:09Z</time>
      </trkpt>
      <trkpt lat="46.20963" lon="-1.46864">
        <ele>2.540649</ele>
        <time>2014-08-18T15:52:28Z</time>
      </trkpt>
      <trkpt lat="46.21001" lon="-1.46821">
        <ele>2.060059</ele>
        <time>2014-08-18T15:52:43Z</time>
      </trkpt>
      <trkpt lat="46.21025" lon="-1.46758">
        <ele>2.060059</ele>
        <time>2014-08-18T15:52:57Z</time>
      </trkpt>
      <trkpt lat="46.21053" lon="-1.46681">
        <ele>2.060059</ele>
        <time>2014-08-18T15:53:13Z</time>
      </trkpt>
      <trkpt lat="46.21065" lon="-1.46581">
        <ele>2.540649</ele>
        <time>2014-08-18T15:53:30Z</time>
      </trkpt>
      <trkpt lat="46.21071" lon="-1.46452">
        <ele>2.540649</ele>
        <time>2014-08-18T15:53:50Z</time>
      </trkpt>
      <trkpt lat="46.21084" lon="-1.46348">
        <ele>3.02124</ele>
        <time>2014-08-18T15:54:06Z</time>
      </trkpt>
      <trkpt lat="46.21107" lon="-1.46231">
        <ele>2.540649</ele>
        <time>2014-08-18T15:54:24Z</time>
      </trkpt>
      <trkpt lat="46.2112" lon="-1.46177">
        <ele>3.02124</ele>
        <time>2014-08-18T15:54:34Z</time>
      </trkpt>
      <trkpt lat="46.21123" lon="-1.46076">
        <ele>2.540649</ele>
        <time>2014-08-18T15:54:52Z</time>
      </trkpt>
      <trkpt lat="46.21123" lon="-1.46035">
        <ele>2.540649</ele>
        <time>2014-08-18T15:55:05Z</time>
      </trkpt>
      <trkpt lat="46.21107" lon="-1.46008">
        <ele>2.060059</ele>
        <time>2014-08-18T15:55:18Z</time>
      </trkpt>
      <trkpt lat="46.21094" lon="-1.45968">
        <ele>1.579346</ele>
        <time>2014-08-18T15:55:30Z</time>
      </trkpt>
      <trkpt lat="46.21084" lon="-1.45901">
        <ele>2.540649</ele>
        <time>2014-08-18T15:55:46Z</time>
      </trkpt>
      <trkpt lat="46.21073" lon="-1.45816">
        <ele>2.060059</ele>
        <time>2014-08-18T15:56:04Z</time>
      </trkpt>
      <trkpt lat="46.21056" lon="-1.45736">
        <ele>2.540649</ele>
        <time>2014-08-18T15:56:21Z</time>
      </trkpt>
      <trkpt lat="46.2104" lon="-1.45655">
        <ele>1.579346</ele>
        <time>2014-08-18T15:56:38Z</time>
      </trkpt>
      <trkpt lat="46.21032" lon="-1.45616">
        <ele>1.579346</ele>
        <time>2014-08-18T15:56:46Z</time>
      </trkpt>
      <trkpt lat="46.21009" lon="-1.45539">
        <ele>2.060059</ele>
        <time>2014-08-18T15:57:02Z</time>
      </trkpt>
      <trkpt lat="46.2098" lon="-1.4545">
        <ele>1.579346</ele>
        <time>2014-08-18T15:57:22Z</time>
      </trkpt>
      <trkpt lat="46.2096" lon="-1.45377">
        <ele>1.579346</ele>
        <time>2014-08-18T15:57:39Z</time>
      </trkpt>
      <trkpt lat="46.2094" lon="-1.45315">
        <ele>1.579346</ele>
        <time>2014-08-18T15:57:53Z</time>
      </trkpt>
      <trkpt lat="46.20908" lon="-1.45222">
        <ele>1.579346</ele>
        <time>2014-08-18T15:58:13Z</time>
      </trkpt>
      <trkpt lat="46.2088" lon="-1.45138">
        <ele>1.579346</ele>
        <time>2014-08-18T15:58:32Z</time>
      </trkpt>
      <trkpt lat="46.20846" lon="-1.45035">
        <ele>2.060059</ele>
        <time>2014-08-18T15:58:54Z</time>
      </trkpt>
      <trkpt lat="46.20816" lon="-1.44947">
        <ele>1.579346</ele>
        <time>2014-08-18T15:59:13Z</time>
      </trkpt>
      <trkpt lat="46.20771" lon="-1.44811">
        <ele>2.060059</ele>
        <time>2014-08-18T15:59:39Z</time>
      </trkpt>
      <trkpt lat="46.20727" lon="-1.44676">
        <ele>1.579346</ele>
        <time>2014-08-18T16:00:04Z</time>
      </trkpt>
      <trkpt lat="46.20684" lon="-1.44547">
        <ele>1.098633</ele>
        <time>2014-08-18T16:00:28Z</time>
      </trkpt>
      <trkpt lat="46.2065" lon="-1.44446">
        <ele>1.098633</ele>
        <time>2014-08-18T16:00:48Z</time>
      </trkpt>
      <trkpt lat="46.20636" lon="-1.44395">
        <ele>1.098633</ele>
        <time>2014-08-18T16:01:01Z</time>
      </trkpt>
      <trkpt lat="46.20652" lon="-1.44373">
        <ele>2.540649</ele>
        <time>2014-08-18T16:01:14Z</time>
      </trkpt>
      <trkpt lat="46.20674" lon="-1.44348">
        <ele>1.579346</ele>
        <time>2014-08-18T16:01:27Z</time>
      </trkpt>
      <trkpt lat="46.20674" lon="-1.44351">
        <ele>1.098633</ele>
        <time>2014-08-18T16:01:45Z</time>
      </trkpt>
      <trkpt lat="46.20672" lon="-1.44351">
        <ele>0.137451</ele>
        <time>2014-08-18T16:02:05Z</time>
      </trkpt>
      <trkpt lat="46.20672" lon="-1.44352">
        <ele>1.098633</ele>
        <time>2014-08-18T16:02:10Z</time>
      </trkpt>
      <trkpt lat="46.20667" lon="-1.44356">
        <ele>2.060059</ele>
        <time>2014-08-18T16:02:14Z</time>
      </trkpt>
      <trkpt lat="46.20648" lon="-1.44386">
        <ele>2.540649</ele>
        <time>2014-08-18T16:02:27Z</time>
      </trkpt>
      <trkpt lat="46.20645" lon="-1.44388">
        <ele>1.579346</ele>
        <time>2014-08-18T16:02:29Z</time>
      </trkpt>
      <trkpt lat="46.20636" lon="-1.44382">
        <ele>0.618042</ele>
        <time>2014-08-18T16:02:35Z</time>
      </trkpt>
      <trkpt lat="46.20618" lon="-1.44347">
        <ele>1.098633</ele>
        <time>2014-08-18T16:02:48Z</time>
      </trkpt>
      <trkpt lat="46.20586" lon="-1.44254">
        <ele>2.060059</ele>
        <time>2014-08-18T16:03:06Z</time>
      </trkpt>
      <trkpt lat="46.2058" lon="-1.44233">
        <ele>1.579346</ele>
        <time>2014-08-18T16:03:10Z</time>
      </trkpt>
      <trkpt lat="46.20542" lon="-1.44135">
        <ele>1.098633</ele>
        <time>2014-08-18T16:03:29Z</time>
      </trkpt>
      <trkpt lat="46.20499" lon="-1.44028">
        <ele>1.098633</ele>
        <time>2014-08-18T16:03:50Z</time>
      </trkpt>
      <trkpt lat="46.20456" lon="-1.43919">
        <ele>1.579346</ele>
        <time>2014-08-18T16:04:10Z</time>
      </trkpt>
      <trkpt lat="46.2044" lon="-1.43877">
        <ele>1.579346</ele>
        <time>2014-08-18T16:04:17Z</time>
      </trkpt>
      <trkpt lat="46.20403" lon="-1.43786">
        <ele>1.098633</ele>
        <time>2014-08-18T16:04:34Z</time>
      </trkpt>
      <trkpt lat="46.20363" lon="-1.43684">
        <ele>1.098633</ele>
        <time>2014-08-18T16:04:53Z</time>
      </trkpt>
      <trkpt lat="46.20319" lon="-1.43575">
        <ele>1.098633</ele>
        <time>2014-08-18T16:05:12Z</time>
      </trkpt>
      <trkpt lat="46.20282" lon="-1.43484">
        <ele>1.098633</ele>
        <time>2014-08-18T16:05:25Z</time>
      </trkpt>
      <trkpt lat="46.20242" lon="-1.43383">
        <ele>0.618042</ele>
        <time>2014-08-18T16:05:43Z</time>
      </trkpt>
      <trkpt lat="46.20201" lon="-1.43279">
        <ele>1.098633</ele>
        <time>2014-08-18T16:06:02Z</time>
      </trkpt>
      <trkpt lat="46.2016" lon="-1.43178">
        <ele>1.098633</ele>
        <time>2014-08-18T16:06:20Z</time>
      </trkpt>
      <trkpt lat="46.20122" lon="-1.43083">
        <ele>0.137451</ele>
        <time>2014-08-18T16:06:38Z</time>
      </trkpt>
      <trkpt lat="46.20089" lon="-1.42997">
        <ele>1.579346</ele>
        <time>2014-08-18T16:06:55Z</time>
      </trkpt>
      <trkpt lat="46.20074" lon="-1.42956">
        <ele>1.579346</ele>
        <time>2014-08-18T16:07:03Z</time>
      </trkpt>
      <trkpt lat="46.20064" lon="-1.42931">
        <ele>1.098633</ele>
        <time>2014-08-18T16:07:07Z</time>
      </trkpt>
      <trkpt lat="46.20057" lon="-1.42912">
        <ele>1.098633</ele>
        <time>2014-08-18T16:07:10Z</time>
      </trkpt>
      <trkpt lat="46.20045" lon="-1.42888">
        <ele>0.618042</ele>
        <time>2014-08-18T16:07:14Z</time>
      </trkpt>
      <trkpt lat="46.20004" lon="-1.42784">
        <ele>0.618042</ele>
        <time>2014-08-18T16:07:34Z</time>
      </trkpt>
      <trkpt lat="46.19987" lon="-1.42742">
        <ele>1.098633</ele>
        <time>2014-08-18T16:07:50Z</time>
      </trkpt>
      <trkpt lat="46.19953" lon="-1.42739">
        <ele>0.618042</ele>
        <time>2014-08-18T16:08:02Z</time>
      </trkpt>
      <trkpt lat="46.199" lon="-1.42743">
        <ele>1.098633</ele>
        <time>2014-08-18T16:08:18Z</time>
      </trkpt>
      <trkpt lat="46.19873" lon="-1.42683">
        <ele>1.098633</ele>
        <time>2014-08-18T16:08:33Z</time>
      </trkpt>
      <trkpt lat="46.19873" lon="-1.42677">
        <ele>1.098633</ele>
        <time>2014-08-18T16:08:34Z</time>
      </trkpt>
      <trkpt lat="46.19852" lon="-1.42626">
        <ele>1.098633</ele>
        <time>2014-08-18T16:08:46Z</time>
      </trkpt>
      <trkpt lat="46.19843" lon="-1.42618">
        <ele>1.579346</ele>
        <time>2014-08-18T16:08:52Z</time>
      </trkpt>
      <trkpt lat="46.19837" lon="-1.42625">
        <ele>1.098633</ele>
        <time>2014-08-18T16:08:59Z</time>
      </trkpt>
      <trkpt lat="46.19833" lon="-1.42613">
        <ele>1.579346</ele>
        <time>2014-08-18T16:09:06Z</time>
      </trkpt>
      <trkpt lat="46.19835" lon="-1.42608">
        <ele>1.098633</ele>
        <time>2014-08-18T16:09:08Z</time>
      </trkpt>
      <trkpt lat="46.19828" lon="-1.42596">
        <ele>1.098633</ele>
        <time>2014-08-18T16:09:14Z</time>
      </trkpt>
      <trkpt lat="46.19818" lon="-1.42581">
        <ele>0.618042</ele>
        <time>2014-08-18T16:09:27Z</time>
      </trkpt>
      <trkpt lat="46.19817" lon="-1.42583">
        <ele>1.579346</ele>
        <time>2014-08-18T16:09:40Z</time>
      </trkpt>
      <trkpt lat="46.19824" lon="-1.42592">
        <ele>1.098633</ele>
        <time>2014-08-18T16:09:54Z</time>
      </trkpt>
      <trkpt lat="46.19824" lon="-1.42592">
        <ele>1.098633</ele>
        <time>2014-08-18T16:10:12Z</time>
      </trkpt>
      <trkpt lat="46.19819" lon="-1.42581">
        <ele>1.098633</ele>
        <time>2014-08-18T16:10:18Z</time>
      </trkpt>
      <trkpt lat="46.19787" lon="-1.42542">
        <ele>1.579346</ele>
        <time>2014-08-18T16:10:37Z</time>
      </trkpt>
      <trkpt lat="46.19757" lon="-1.42504">
        <ele>1.579346</ele>
        <time>2014-08-18T16:10:53Z</time>
      </trkpt>
      <trkpt lat="46.19729" lon="-1.42467">
        <ele>1.098633</ele>
        <time>2014-08-18T16:11:08Z</time>
      </trkpt>
      <trkpt lat="46.19697" lon="-1.42431">
        <ele>2.060059</ele>
        <time>2014-08-18T16:11:22Z</time>
      </trkpt>
      <trkpt lat="46.1967" lon="-1.42402">
        <ele>2.540649</ele>
        <time>2014-08-18T16:11:34Z</time>
      </trkpt>
      <trkpt lat="46.19635" lon="-1.42358">
        <ele>3.02124</ele>
        <time>2014-08-18T16:11:51Z</time>
      </trkpt>
      <trkpt lat="46.19618" lon="-1.4233">
        <ele>3.501953</ele>
        <time>2014-08-18T16:12:03Z</time>
      </trkpt>
      <trkpt lat="46.19588" lon="-1.42289">
        <ele>3.501953</ele>
        <time>2014-08-18T16:12:14Z</time>
      </trkpt>
      <trkpt lat="46.19552" lon="-1.42233">
        <ele>3.982666</ele>
        <time>2014-08-18T16:12:30Z</time>
      </trkpt>
      <trkpt lat="46.19521" lon="-1.4219">
        <ele>3.501953</ele>
        <time>2014-08-18T16:12:43Z</time>
      </trkpt>
      <trkpt lat="46.19504" lon="-1.42165">
        <ele>3.501953</ele>
        <time>2014-08-18T16:12:55Z</time>
      </trkpt>
      <trkpt lat="46.19509" lon="-1.42144">
        <ele>3.501953</ele>
        <time>2014-08-18T16:13:10Z</time>
      </trkpt>
      <trkpt lat="46.19522" lon="-1.42114">
        <ele>4.463257</ele>
        <time>2014-08-18T16:13:19Z</time>
      </trkpt>
      <trkpt lat="46.19533" lon="-1.42084">
        <ele>4.463257</ele>
        <time>2014-08-18T16:13:23Z</time>
      </trkpt>
      <trkpt lat="46.19565" lon="-1.42027">
        <ele>3.982666</ele>
        <time>2014-08-18T16:13:32Z</time>
      </trkpt>
      <trkpt lat="46.19565" lon="-1.41999">
        <ele>2.060059</ele>
        <time>2014-08-18T16:13:40Z</time>
      </trkpt>
      <trkpt lat="46.19564" lon="-1.42004">
        <ele>3.02124</ele>
        <time>2014-08-18T16:13:54Z</time>
      </trkpt>
      <trkpt lat="46.19567" lon="-1.42004">
        <ele>2.060059</ele>
        <time>2014-08-18T16:14:31Z</time>
      </trkpt>
      <trkpt lat="46.19567" lon="-1.42005">
        <ele>2.060059</ele>
        <time>2014-08-18T16:14:58Z</time>
      </trkpt>
      <trkpt lat="46.19567" lon="-1.42005">
        <ele>3.02124</ele>
        <time>2014-08-18T16:15:15Z</time>
      </trkpt>
      <trkpt lat="46.19567" lon="-1.42004">
        <ele>3.982666</ele>
        <time>2014-08-18T16:15:29Z</time>
      </trkpt>
      <trkpt lat="46.19568" lon="-1.42004">
        <ele>2.540649</ele>
        <time>2014-08-18T16:15:35Z</time>
      </trkpt>
      <trkpt lat="46.19569" lon="-1.42007">
        <ele>3.982666</ele>
        <time>2014-08-18T16:15:37Z</time>
      </trkpt>
      <trkpt lat="46.19564" lon="-1.42029">
        <ele>3.982666</ele>
        <time>2014-08-18T16:15:43Z</time>
      </trkpt>
      <trkpt lat="46.19548" lon="-1.42049">
        <ele>3.982666</ele>
        <time>2014-08-18T16:15:51Z</time>
      </trkpt>
      <trkpt lat="46.19541" lon="-1.42036">
        <ele>3.982666</ele>
        <time>2014-08-18T16:15:56Z</time>
      </trkpt>
      <trkpt lat="46.19535" lon="-1.41951">
        <ele>3.02124</ele>
        <time>2014-08-18T16:16:12Z</time>
      </trkpt>
      <trkpt lat="46.19535" lon="-1.41941">
        <ele>3.501953</ele>
        <time>2014-08-18T16:16:14Z</time>
      </trkpt>
      <trkpt lat="46.19523" lon="-1.4193">
        <ele>3.501953</ele>
        <time>2014-08-18T16:16:18Z</time>
      </trkpt>
      <trkpt lat="46.19459" lon="-1.41923">
        <ele>3.02124</ele>
        <time>2014-08-18T16:16:34Z</time>
      </trkpt>
      <trkpt lat="46.19398" lon="-1.419">
        <ele>3.02124</ele>
        <time>2014-08-18T16:16:51Z</time>
      </trkpt>
      <trkpt lat="46.19401" lon="-1.41883">
        <ele>4.463257</ele>
        <time>2014-08-18T16:16:57Z</time>
      </trkpt>
      <trkpt lat="46.19418" lon="-1.41838">
        <ele>3.982666</ele>
        <time>2014-08-18T16:17:05Z</time>
      </trkpt>
      <trkpt lat="46.19421" lon="-1.41815">
        <ele>3.501953</ele>
        <time>2014-08-18T16:17:08Z</time>
      </trkpt>
      <trkpt lat="46.194" lon="-1.4169">
        <ele>3.02124</ele>
        <time>2014-08-18T16:17:24Z</time>
      </trkpt>
      <trkpt lat="46.19373" lon="-1.41583">
        <ele>3.982666</ele>
        <time>2014-08-18T16:17:38Z</time>
      </trkpt>
      <trkpt lat="46.1936" lon="-1.41479">
        <ele>3.501953</ele>
        <time>2014-08-18T16:17:54Z</time>
      </trkpt>
      <trkpt lat="46.19342" lon="-1.41382">
        <ele>3.501953</ele>
        <time>2014-08-18T16:18:09Z</time>
      </trkpt>
      <trkpt lat="46.19359" lon="-1.41317">
        <ele>3.982666</ele>
        <time>2014-08-18T16:18:21Z</time>
      </trkpt>
      <trkpt lat="46.19368" lon="-1.41298">
        <ele>3.982666</ele>
        <time>2014-08-18T16:18:24Z</time>
      </trkpt>
      <trkpt lat="46.19374" lon="-1.41285">
        <ele>3.501953</ele>
        <time>2014-08-18T16:18:26Z</time>
      </trkpt>
      <trkpt lat="46.19393" lon="-1.41168">
        <ele>3.982666</ele>
        <time>2014-08-18T16:18:40Z</time>
      </trkpt>
      <trkpt lat="46.19419" lon="-1.41077">
        <ele>3.501953</ele>
        <time>2014-08-18T16:18:51Z</time>
      </trkpt>
      <trkpt lat="46.19417" lon="-1.41029">
        <ele>3.982666</ele>
        <time>2014-08-18T16:18:57Z</time>
      </trkpt>
      <trkpt lat="46.19381" lon="-1.40883">
        <ele>3.982666</ele>
        <time>2014-08-18T16:19:15Z</time>
      </trkpt>
      <trkpt lat="46.19356" lon="-1.40782">
        <ele>3.501953</ele>
        <time>2014-08-18T16:19:28Z</time>
      </trkpt>
      <trkpt lat="46.19325" lon="-1.40658">
        <ele>3.982666</ele>
        <time>2014-08-18T16:19:44Z</time>
      </trkpt>
      <trkpt lat="46.19319" lon="-1.40626">
        <ele>3.982666</ele>
        <time>2014-08-18T16:19:48Z</time>
      </trkpt>
      <trkpt lat="46.19292" lon="-1.40522">
        <ele>3.982666</ele>
        <time>2014-08-18T16:20:04Z</time>
      </trkpt>
      <trkpt lat="46.19275" lon="-1.4045">
        <ele>4.463257</ele>
        <time>2014-08-18T16:20:19Z</time>
      </trkpt>
      <trkpt lat="46.19263" lon="-1.40399">
        <ele>4.463257</ele>
        <time>2014-08-18T16:20:29Z</time>
      </trkpt>
      <trkpt lat="46.19236" lon="-1.40298">
        <ele>4.463257</ele>
        <time>2014-08-18T16:20:47Z</time>
      </trkpt>
      <trkpt lat="46.192" lon="-1.40162">
        <ele>4.463257</ele>
        <time>2014-08-18T16:21:11Z</time>
      </trkpt>
      <trkpt lat="46.19166" lon="-1.40031">
        <ele>4.463257</ele>
        <time>2014-08-18T16:21:32Z</time>
      </trkpt>
      <trkpt lat="46.19121" lon="-1.39882">
        <ele>5.424561</ele>
        <time>2014-08-18T16:21:55Z</time>
      </trkpt>
      <trkpt lat="46.19083" lon="-1.39773">
        <ele>5.424561</ele>
        <time>2014-08-18T16:22:13Z</time>
      </trkpt>
      <trkpt lat="46.19078" lon="-1.39763">
        <ele>5.424561</ele>
        <time>2014-08-18T16:22:15Z</time>
      </trkpt>
      <trkpt lat="46.19071" lon="-1.39739">
        <ele>5.424561</ele>
        <time>2014-08-18T16:22:19Z</time>
      </trkpt>
      <trkpt lat="46.19042" lon="-1.39654">
        <ele>5.424561</ele>
        <time>2014-08-18T16:22:34Z</time>
      </trkpt>
      <trkpt lat="46.19029" lon="-1.3961">
        <ele>5.905273</ele>
        <time>2014-08-18T16:22:48Z</time>
      </trkpt>
      <trkpt lat="46.19028" lon="-1.39613">
        <ele>5.424561</ele>
        <time>2014-08-18T16:23:13Z</time>
      </trkpt>
      <trkpt lat="46.19028" lon="-1.39614">
        <ele>5.424561</ele>
        <time>2014-08-18T16:23:37Z</time>
      </trkpt>
      <trkpt lat="46.19021" lon="-1.39605">
        <ele>5.905273</ele>
        <time>2014-08-18T16:23:53Z</time>
      </trkpt>
      <trkpt lat="46.18977" lon="-1.39578">
        <ele>6.385864</ele>
        <time>2014-08-18T16:24:05Z</time>
      </trkpt>
      <trkpt lat="46.18901" lon="-1.39544">
        <ele>6.385864</ele>
        <time>2014-08-18T16:24:20Z</time>
      </trkpt>
      <trkpt lat="46.18866" lon="-1.39527">
        <ele>6.385864</ele>
        <time>2014-08-18T16:24:32Z</time>
      </trkpt>
      <trkpt lat="46.18834" lon="-1.39518">
        <ele>6.385864</ele>
        <time>2014-08-18T16:24:41Z</time>
      </trkpt>
      <trkpt lat="46.1881" lon="-1.3951">
        <ele>6.385864</ele>
        <time>2014-08-18T16:24:48Z</time>
      </trkpt>
      <trkpt lat="46.18807" lon="-1.39465">
        <ele>6.866455</ele>
        <time>2014-08-18T16:24:58Z</time>
      </trkpt>
      <trkpt lat="46.18809" lon="-1.39424">
        <ele>6.866455</ele>
        <time>2014-08-18T16:25:05Z</time>
      </trkpt>
      <trkpt lat="46.18791" lon="-1.39372">
        <ele>6.385864</ele>
        <time>2014-08-18T16:25:14Z</time>
      </trkpt>
      <trkpt lat="46.18776" lon="-1.39263">
        <ele>7.827881</ele>
        <time>2014-08-18T16:25:30Z</time>
      </trkpt>
      <trkpt lat="46.18768" lon="-1.39217">
        <ele>7.347168</ele>
        <time>2014-08-18T16:25:37Z</time>
      </trkpt>
      <trkpt lat="46.18764" lon="-1.39193">
        <ele>6.866455</ele>
        <time>2014-08-18T16:25:41Z</time>
      </trkpt>
      <trkpt lat="46.18754" lon="-1.39176">
        <ele>7.347168</ele>
        <time>2014-08-18T16:25:45Z</time>
      </trkpt>
      <trkpt lat="46.18744" lon="-1.39172">
        <ele>6.385864</ele>
        <time>2014-08-18T16:25:54Z</time>
      </trkpt>
      <trkpt lat="46.18745" lon="-1.39173">
        <ele>6.866455</ele>
        <time>2014-08-18T16:25:58Z</time>
      </trkpt>
      <trkpt lat="46.1873" lon="-1.39194">
        <ele>6.866455</ele>
        <time>2014-08-18T16:26:07Z</time>
      </trkpt>
      <trkpt lat="46.18685" lon="-1.39203">
        <ele>7.347168</ele>
        <time>2014-08-18T16:26:23Z</time>
      </trkpt>
      <trkpt lat="46.18662" lon="-1.39182">
        <ele>6.866455</ele>
        <time>2014-08-18T16:26:33Z</time>
      </trkpt>
      <trkpt lat="46.18645" lon="-1.39179">
        <ele>6.866455</ele>
        <time>2014-08-18T16:26:39Z</time>
      </trkpt>
      <trkpt lat="46.18641" lon="-1.39187">
        <ele>7.347168</ele>
        <time>2014-08-18T16:26:43Z</time>
      </trkpt>
      <trkpt lat="46.18645" lon="-1.39208">
        <ele>6.385864</ele>
        <time>2014-08-18T16:26:56Z</time>
      </trkpt>
      <trkpt lat="46.18646" lon="-1.39203">
        <ele>6.866455</ele>
        <time>2014-08-18T16:27:10Z</time>
      </trkpt>
      <trkpt lat="46.18642" lon="-1.39204">
        <ele>6.866455</ele>
        <time>2014-08-18T16:27:22Z</time>
      </trkpt>
      <trkpt lat="46.18641" lon="-1.39204">
        <ele>7.347168</ele>
        <time>2014-08-18T16:27:29Z</time>
      </trkpt>
      <trkpt lat="46.1864" lon="-1.39206">
        <ele>6.866455</ele>
        <time>2014-08-18T16:27:42Z</time>
      </trkpt>
      <trkpt lat="46.18637" lon="-1.39203">
        <ele>7.347168</ele>
        <time>2014-08-18T16:28:00Z</time>
      </trkpt>
      <trkpt lat="46.18638" lon="-1.39211">
        <ele>7.827881</ele>
        <time>2014-08-18T16:28:17Z</time>
      </trkpt>
      <trkpt lat="46.1864" lon="-1.39208">
        <ele>7.827881</ele>
        <time>2014-08-18T16:28:38Z</time>
      </trkpt>
      <trkpt lat="46.18646" lon="-1.3921">
        <ele>8.308594</ele>
        <time>2014-08-18T16:29:04Z</time>
      </trkpt>
      <trkpt lat="46.1865" lon="-1.39211">
        <ele>8.308594</ele>
        <time>2014-08-18T16:29:32Z</time>
      </trkpt>
      <trkpt lat="46.18648" lon="-1.39209">
        <ele>8.789185</ele>
        <time>2014-08-18T16:29:54Z</time>
      </trkpt>
      <trkpt lat="46.18649" lon="-1.39204">
        <ele>8.789185</ele>
        <time>2014-08-18T16:30:12Z</time>
      </trkpt>
      <trkpt lat="46.18646" lon="-1.39194">
        <ele>8.789185</ele>
        <time>2014-08-18T16:30:27Z</time>
      </trkpt>
      <trkpt lat="46.18642" lon="-1.39188">
        <ele>8.789185</ele>
        <time>2014-08-18T16:30:42Z</time>
      </trkpt>
      <trkpt lat="46.18642" lon="-1.39184">
        <ele>8.308594</ele>
        <time>2014-08-18T16:30:45Z</time>
      </trkpt>
      <trkpt lat="46.1864" lon="-1.39177">
        <ele>8.789185</ele>
        <time>2014-08-18T16:30:49Z</time>
      </trkpt>
      <trkpt lat="46.18631" lon="-1.39151">
        <ele>8.789185</ele>
        <time>2014-08-18T16:31:05Z</time>
      </trkpt>
      <trkpt lat="46.18628" lon="-1.39133">
        <ele>9.269897</ele>
        <time>2014-08-18T16:31:17Z</time>
      </trkpt>
      <trkpt lat="46.18625" lon="-1.39091">
        <ele>8.789185</ele>
        <time>2014-08-18T16:31:34Z</time>
      </trkpt>
      <trkpt lat="46.18623" lon="-1.39055">
        <ele>9.269897</ele>
        <time>2014-08-18T16:31:47Z</time>
      </trkpt>
      <trkpt lat="46.18627" lon="-1.39034">
        <ele>9.75061</ele>
        <time>2014-08-18T16:31:58Z</time>
      </trkpt>
      <trkpt lat="46.18613" lon="-1.38997">
        <ele>9.269897</ele>
        <time>2014-08-18T16:32:11Z</time>
      </trkpt>
      <trkpt lat="46.18604" lon="-1.38926">
        <ele>9.269897</ele>
        <time>2014-08-18T16:32:24Z</time>
      </trkpt>
      <trkpt lat="46.18592" lon="-1.38888">
        <ele>9.75061</ele>
        <time>2014-08-18T16:32:31Z</time>
      </trkpt>
      <trkpt lat="46.18574" lon="-1.38818">
        <ele>9.269897</ele>
        <time>2014-08-18T16:32:43Z</time>
      </trkpt>
      <trkpt lat="46.18566" lon="-1.38786">
        <ele>8.789185</ele>
        <time>2014-08-18T16:32:48Z</time>
      </trkpt>
      <trkpt lat="46.1855" lon="-1.387">
        <ele>9.269897</ele>
        <time>2014-08-18T16:33:03Z</time>
      </trkpt>
      <trkpt lat="46.18516" lon="-1.38616">
        <ele>9.269897</ele>
        <time>2014-08-18T16:33:20Z</time>
      </trkpt>
      <trkpt lat="46.18499" lon="-1.38539">
        <ele>8.789185</ele>
        <time>2014-08-18T16:33:31Z</time>
      </trkpt>
      <trkpt lat="46.18494" lon="-1.38516">
        <ele>8.308594</ele>
        <time>2014-08-18T16:33:36Z</time>
      </trkpt>
      <trkpt lat="46.18486" lon="-1.38489">
        <ele>8.789185</ele>
        <time>2014-08-18T16:33:44Z</time>
      </trkpt>
      <trkpt lat="46.18478" lon="-1.38471">
        <ele>8.789185</ele>
        <time>2014-08-18T16:33:47Z</time>
      </trkpt>
      <trkpt lat="46.18475" lon="-1.38453">
        <ele>8.308594</ele>
        <time>2014-08-18T16:33:50Z</time>
      </trkpt>
      <trkpt lat="46.18458" lon="-1.3843">
        <ele>7.827881</ele>
        <time>2014-08-18T16:33:56Z</time>
      </trkpt>
      <trkpt lat="46.18411" lon="-1.38345">
        <ele>7.827881</ele>
        <time>2014-08-18T16:34:11Z</time>
      </trkpt>
      <trkpt lat="46.18424" lon="-1.38303">
        <ele>7.347168</ele>
        <time>2014-08-18T16:34:18Z</time>
      </trkpt>
      <trkpt lat="46.1844" lon="-1.38284">
        <ele>6.385864</ele>
        <time>2014-08-18T16:34:22Z</time>
      </trkpt>
      <trkpt lat="46.18483" lon="-1.38217">
        <ele>6.866455</ele>
        <time>2014-08-18T16:34:34Z</time>
      </trkpt>
      <trkpt lat="46.18479" lon="-1.38182">
        <ele>7.827881</ele>
        <time>2014-08-18T16:34:40Z</time>
      </trkpt>
      <trkpt lat="46.18449" lon="-1.38163">
        <ele>7.347168</ele>
        <time>2014-08-18T16:34:47Z</time>
      </trkpt>
      <trkpt lat="46.18441" lon="-1.38153">
        <ele>8.789185</ele>
        <time>2014-08-18T16:34:49Z</time>
      </trkpt>
      <trkpt lat="46.18424" lon="-1.38141">
        <ele>9.269897</ele>
        <time>2014-08-18T16:34:53Z</time>
      </trkpt>
      <trkpt lat="46.184" lon="-1.38119">
        <ele>9.75061</ele>
        <time>2014-08-18T16:34:59Z</time>
      </trkpt>
      <trkpt lat="46.18379" lon="-1.38104">
        <ele>9.75061</ele>
        <time>2014-08-18T16:35:04Z</time>
      </trkpt>
      <trkpt lat="46.1837" lon="-1.38099">
        <ele>9.75061</ele>
        <time>2014-08-18T16:35:06Z</time>
      </trkpt>
      <trkpt lat="46.18361" lon="-1.38095">
        <ele>10.231201</ele>
        <time>2014-08-18T16:35:08Z</time>
      </trkpt>
      <trkpt lat="46.18351" lon="-1.38092">
        <ele>10.231201</ele>
        <time>2014-08-18T16:35:10Z</time>
      </trkpt>
      <trkpt lat="46.1833" lon="-1.38086">
        <ele>10.231201</ele>
        <time>2014-08-18T16:35:14Z</time>
      </trkpt>
      <trkpt lat="46.1832" lon="-1.38082">
        <ele>10.231201</ele>
        <time>2014-08-18T16:35:16Z</time>
      </trkpt>
      <trkpt lat="46.18299" lon="-1.38073">
        <ele>10.231201</ele>
        <time>2014-08-18T16:35:20Z</time>
      </trkpt>
      <trkpt lat="46.18255" lon="-1.38045">
        <ele>9.75061</ele>
        <time>2014-08-18T16:35:29Z</time>
      </trkpt>
      <trkpt lat="46.18212" lon="-1.38003">
        <ele>9.269897</ele>
        <time>2014-08-18T16:35:39Z</time>
      </trkpt>
      <trkpt lat="46.182" lon="-1.37979">
        <ele>9.75061</ele>
        <time>2014-08-18T16:35:43Z</time>
      </trkpt>
      <trkpt lat="46.18163" lon="-1.37821">
        <ele>10.711792</ele>
        <time>2014-08-18T16:36:04Z</time>
      </trkpt>
      <trkpt lat="46.18152" lon="-1.37756">
        <ele>10.231201</ele>
        <time>2014-08-18T16:36:12Z</time>
      </trkpt>
      <trkpt lat="46.18143" lon="-1.37719">
        <ele>10.711792</ele>
        <time>2014-08-18T16:36:17Z</time>
      </trkpt>
      <trkpt lat="46.18137" lon="-1.37692">
        <ele>11.192505</ele>
        <time>2014-08-18T16:36:21Z</time>
      </trkpt>
      <trkpt lat="46.18119" lon="-1.37639">
        <ele>10.231201</ele>
        <time>2014-08-18T16:36:31Z</time>
      </trkpt>
      <trkpt lat="46.18107" lon="-1.37635">
        <ele>10.711792</ele>
        <time>2014-08-18T16:36:34Z</time>
      </trkpt>
      <trkpt lat="46.18052" lon="-1.3761">
        <ele>11.192505</ele>
        <time>2014-08-18T16:36:47Z</time>
      </trkpt>
      <trkpt lat="46.18048" lon="-1.37607">
        <ele>10.711792</ele>
        <time>2014-08-18T16:36:48Z</time>
      </trkpt>
      <trkpt lat="46.18006" lon="-1.37595">
        <ele>10.711792</ele>
        <time>2014-08-18T16:36:55Z</time>
      </trkpt>
      <trkpt lat="46.17987" lon="-1.37581">
        <ele>10.711792</ele>
        <time>2014-08-18T16:36:59Z</time>
      </trkpt>
      <trkpt lat="46.1797" lon="-1.37568">
        <ele>10.231201</ele>
        <time>2014-08-18T16:37:02Z</time>
      </trkpt>
      <trkpt lat="46.17947" lon="-1.37555">
        <ele>10.231201</ele>
        <time>2014-08-18T16:37:06Z</time>
      </trkpt>
      <trkpt lat="46.17924" lon="-1.3751">
        <ele>9.75061</ele>
        <time>2014-08-18T16:37:13Z</time>
      </trkpt>
      <trkpt lat="46.17943" lon="-1.37469">
        <ele>9.269897</ele>
        <time>2014-08-18T16:37:20Z</time>
      </trkpt>
      <trkpt lat="46.17946" lon="-1.37439">
        <ele>9.269897</ele>
        <time>2014-08-18T16:37:25Z</time>
      </trkpt>
      <trkpt lat="46.17937" lon="-1.37407">
        <ele>9.75061</ele>
        <time>2014-08-18T16:37:36Z</time>
      </trkpt>
      <trkpt lat="46.17931" lon="-1.37389">
        <ele>9.269897</ele>
        <time>2014-08-18T16:37:43Z</time>
      </trkpt>
      <trkpt lat="46.17891" lon="-1.37389">
        <ele>9.269897</ele>
        <time>2014-08-18T16:37:53Z</time>
      </trkpt>
      <trkpt lat="46.17876" lon="-1.37374">
        <ele>9.75061</ele>
        <time>2014-08-18T16:37:57Z</time>
      </trkpt>
      <trkpt lat="46.17859" lon="-1.3734">
        <ele>9.75061</ele>
        <time>2014-08-18T16:38:04Z</time>
      </trkpt>
      <trkpt lat="46.17858" lon="-1.3732">
        <ele>10.231201</ele>
        <time>2014-08-18T16:38:07Z</time>
      </trkpt>
      <trkpt lat="46.17857" lon="-1.37294">
        <ele>10.231201</ele>
        <time>2014-08-18T16:38:11Z</time>
      </trkpt>
      <trkpt lat="46.17855" lon="-1.3728">
        <ele>9.75061</ele>
        <time>2014-08-18T16:38:13Z</time>
      </trkpt>
      <trkpt lat="46.17853" lon="-1.37259">
        <ele>10.231201</ele>
        <time>2014-08-18T16:38:16Z</time>
      </trkpt>
      <trkpt lat="46.17855" lon="-1.37212">
        <ele>10.711792</ele>
        <time>2014-08-18T16:38:22Z</time>
      </trkpt>
      <trkpt lat="46.17823" lon="-1.37154">
        <ele>9.75061</ele>
        <time>2014-08-18T16:38:30Z</time>
      </trkpt>
      <trkpt lat="46.17781" lon="-1.37091">
        <ele>9.269897</ele>
        <time>2014-08-18T16:38:38Z</time>
      </trkpt>
      <trkpt lat="46.1774" lon="-1.3705">
        <ele>10.231201</ele>
        <time>2014-08-18T16:38:45Z</time>
      </trkpt>
      <trkpt lat="46.17675" lon="-1.37021">
        <ele>10.711792</ele>
        <time>2014-08-18T16:38:56Z</time>
      </trkpt>
      <trkpt lat="46.17662" lon="-1.37016">
        <ele>11.192505</ele>
        <time>2014-08-18T16:38:58Z</time>
      </trkpt>
      <trkpt lat="46.17636" lon="-1.36983">
        <ele>11.192505</ele>
        <time>2014-08-18T16:39:03Z</time>
      </trkpt>
      <trkpt lat="46.17594" lon="-1.36888">
        <ele>11.673218</ele>
        <time>2014-08-18T16:39:15Z</time>
      </trkpt>
      <trkpt lat="46.17511" lon="-1.36804">
        <ele>12.634399</ele>
        <time>2014-08-18T16:39:31Z</time>
      </trkpt>
      <trkpt lat="46.17421" lon="-1.36731">
        <ele>11.673218</ele>
        <time>2014-08-18T16:39:47Z</time>
      </trkpt>
      <trkpt lat="46.17371" lon="-1.36651">
        <ele>10.711792</ele>
        <time>2014-08-18T16:40:00Z</time>
      </trkpt>
      <trkpt lat="46.17333" lon="-1.36594">
        <ele>10.711792</ele>
        <time>2014-08-18T16:40:12Z</time>
      </trkpt>
      <trkpt lat="46.1727" lon="-1.36504">
        <ele>11.192505</ele>
        <time>2014-08-18T16:40:24Z</time>
      </trkpt>
      <trkpt lat="46.17233" lon="-1.36463">
        <ele>9.269897</ele>
        <time>2014-08-18T16:40:30Z</time>
      </trkpt>
      <trkpt lat="46.1712" lon="-1.36343">
        <ele>11.192505</ele>
        <time>2014-08-18T16:40:47Z</time>
      </trkpt>
      <trkpt lat="46.17026" lon="-1.36271">
        <ele>11.673218</ele>
        <time>2014-08-18T16:41:01Z</time>
      </trkpt>
      <trkpt lat="46.16891" lon="-1.36191">
        <ele>11.673218</ele>
        <time>2014-08-18T16:41:18Z</time>
      </trkpt>
      <trkpt lat="46.16812" lon="-1.36084">
        <ele>11.192505</ele>
        <time>2014-08-18T16:41:30Z</time>
      </trkpt>
      <trkpt lat="46.16765" lon="-1.35974">
        <ele>9.269897</ele>
        <time>2014-08-18T16:41:42Z</time>
      </trkpt>
      <trkpt lat="46.16762" lon="-1.35965">
        <ele>9.75061</ele>
        <time>2014-08-18T16:41:44Z</time>
      </trkpt>
      <trkpt lat="46.16775" lon="-1.35951">
        <ele>10.711792</ele>
        <time>2014-08-18T16:41:49Z</time>
      </trkpt>
      <trkpt lat="46.16845" lon="-1.35882">
        <ele>12.153809</ele>
        <time>2014-08-18T16:42:04Z</time>
      </trkpt>
      <trkpt lat="46.16924" lon="-1.35793">
        <ele>12.634399</ele>
        <time>2014-08-18T16:42:18Z</time>
      </trkpt>
      <trkpt lat="46.16958" lon="-1.35771">
        <ele>13.115112</ele>
        <time>2014-08-18T16:42:23Z</time>
      </trkpt>
      <trkpt lat="46.16977" lon="-1.35755">
        <ele>13.115112</ele>
        <time>2014-08-18T16:42:26Z</time>
      </trkpt>
      <trkpt lat="46.17009" lon="-1.35715">
        <ele>13.115112</ele>
        <time>2014-08-18T16:42:33Z</time>
      </trkpt>
      <trkpt lat="46.17039" lon="-1.35698">
        <ele>13.115112</ele>
        <time>2014-08-18T16:42:41Z</time>
      </trkpt>
      <trkpt lat="46.17096" lon="-1.35736">
        <ele>13.595825</ele>
        <time>2014-08-18T16:42:52Z</time>
      </trkpt>
      <trkpt lat="46.17165" lon="-1.35806">
        <ele>14.076416</ele>
        <time>2014-08-18T16:43:09Z</time>
      </trkpt>
      <trkpt lat="46.17197" lon="-1.35834">
        <ele>13.595825</ele>
        <time>2014-08-18T16:43:17Z</time>
      </trkpt>
      <trkpt lat="46.17214" lon="-1.35806">
        <ele>14.076416</ele>
        <time>2014-08-18T16:43:24Z</time>
      </trkpt>
      <trkpt lat="46.1722" lon="-1.35796">
        <ele>13.595825</ele>
        <time>2014-08-18T16:43:26Z</time>
      </trkpt>
      <trkpt lat="46.1724" lon="-1.35773">
        <ele>14.076416</ele>
        <time>2014-08-18T16:43:32Z</time>
      </trkpt>
      <trkpt lat="46.17268" lon="-1.35728">
        <ele>14.557007</ele>
        <time>2014-08-18T16:43:44Z</time>
      </trkpt>
      <trkpt lat="46.17261" lon="-1.35697">
        <ele>14.557007</ele>
        <time>2014-08-18T16:43:51Z</time>
      </trkpt>
      <trkpt lat="46.1726" lon="-1.3569">
        <ele>14.076416</ele>
        <time>2014-08-18T16:44:01Z</time>
      </trkpt>
      <trkpt lat="46.17257" lon="-1.35688">
        <ele>14.076416</ele>
        <time>2014-08-18T16:44:14Z</time>
      </trkpt>
      <trkpt lat="46.17258" lon="-1.35686">
        <ele>12.634399</ele>
        <time>2014-08-18T16:44:25Z</time>
      </trkpt>
      <trkpt lat="46.17254" lon="-1.35685">
        <ele>13.115112</ele>
        <time>2014-08-18T16:45:06Z</time>
      </trkpt>
      <trkpt lat="46.17258" lon="-1.3569">
        <ele>12.634399</ele>
        <time>2014-08-18T16:45:36Z</time>
      </trkpt>
      <trkpt lat="46.17259" lon="-1.35689">
        <ele>12.153809</ele>
        <time>2014-08-18T16:46:06Z</time>
      </trkpt>
      <trkpt lat="46.17259" lon="-1.3569">
        <ele>12.153809</ele>
        <time>2014-08-18T16:47:12Z</time>
      </trkpt>
      <trkpt lat="46.17256" lon="-1.35686">
        <ele>13.595825</ele>
        <time>2014-08-18T16:48:57Z</time>
      </trkpt>
      <trkpt lat="46.17255" lon="-1.35687">
        <ele>13.115112</ele>
        <time>2014-08-18T16:49:06Z</time>
      </trkpt>
      <trkpt lat="46.17259" lon="-1.35685">
        <ele>13.115112</ele>
        <time>2014-08-18T16:49:21Z</time>
      </trkpt>
      <trkpt lat="46.17259" lon="-1.35684">
        <ele>13.595825</ele>
        <time>2014-08-18T16:50:54Z</time>
      </trkpt>
      <trkpt lat="46.17259" lon="-1.35683">
        <ele>13.595825</ele>
        <time>2014-08-18T16:51:56Z</time>
      </trkpt>
      <trkpt lat="46.17258" lon="-1.35685">
        <ele>13.595825</ele>
        <time>2014-08-18T16:52:08Z</time>
      </trkpt>
    </trkseg>
  </trk>
</gpx>